WA4BPS Weather Reports


time (UTC)temp
F
wind
direction
speed
knots
gust
knots
rain 1hr
in
rain 24hr
in
rain mn
in
humidity
%
barometer
mb
20260507074421 52 267 13.0 17.4 0.00 0.00 0.00 98 1007.8
20260507074342 52 312 11.3 17.4 0.00 0.00 0.00 98 1009.8
20260507074241 52 305 10.4 17.4 0.00 0.00 0.00 98 1009.8
20260507074139 52 328 11.3 17.4 0.00 0.00 0.00 98 1009.8
20260507074038 52 326 13.0 17.4 0.00 0.00 0.00 98 1009.8
20260507073940 52 287 14.8 17.4 0.00 0.00 0.00 98 1009.8
20260507073839 52 261 13.9 17.4 0.00 0.00 0.00 98 1009.8
20260507073738 52 284 10.4 16.5 0.00 0.00 0.00 98 1009.8
20260507073637 52 308 10.4 16.5 0.00 0.00 0.00 98 1009.8
20260507073535 52 312 11.3 16.5 0.00 0.00 0.00 98 1009.8
20260507073433 52 254 13.0 16.5 0.00 0.00 0.00 98 1009.8
20260507073352 52 200 9.6 15.6 0.00 0.00 0.00 98 1009.8
20260507073233 53 248 9.6 15.6 0.00 0.00 0.00 98 1009.8
20260507073204 52 323 10.4 15.6 0.00 0.00 0.00 98 1009.8
20260507073040 53 130 10.4 15.6 0.00 0.00 0.00 98 1009.8
20260507072942 52 328 11.3 15.6 0.00 0.00 0.00 98 1009.8
20260507072900 53 176 8.7 15.6 0.00 0.00 0.00 98 1008.0
20260507072737 53 323 9.6 15.6 0.00 0.00 0.00 98 1008.0
20260507072635 52 330 10.4 15.6 0.00 0.00 0.00 98 1008.0
20260507072534 52 301 8.7 15.6 0.00 0.00 0.00 98 1008.0
20260507072457 53 328 11.3 16.5 0.00 0.00 0.00 98 1008.0
20260507072335 52 323 8.7 16.5 0.00 0.00 0.00 98 1008.0
20260507072253 53 274 10.4 16.5 0.00 0.00 0.00 98 1008.0
20260507072130 52 280 11.3 16.5 0.00 0.00 0.00 98 1008.0
20260507072029 52 150 7.8 16.5 0.00 0.00 0.00 98 1008.0
20260507071927 53 251 9.6 16.5 0.00 0.00 0.00 98 1008.0
20260507071826 53 244 12.2 16.5 0.00 0.00 0.00 98 1008.0
20260507071744 53 325 10.4 16.5 0.00 0.00 0.00 98 1008.0
20260507071718 53 305 12.2 16.5 0.00 0.00 0.00 98 1008.0
20260507071536 53 309 12.2 16.5 0.00 0.00 0.00 98 1008.0
20260507071455 53 251 11.3 16.5 0.00 0.00 0.00 98 1008.0
20260507071333 53 325 8.7 16.5 0.00 0.00 0.00 98 1008.3
20260507071231 53 278 9.6 16.5 0.00 0.00 0.00 98 1008.3
20260507071131 53 282 9.6 20.9 0.00 0.00 0.00 98 1008.3
20260507071030 53 320 10.4 20.9 0.00 0.00 0.00 98 1008.3
20260507070932 53 257 11.3 20.9 0.00 0.00 0.00 98 1008.3
20260507070831 53 291 12.2 20.9 0.00 0.00 0.00 98 1008.3
20260507070730 53 272 8.7 20.9 0.00 0.00 0.00 98 1008.3
20260507070629 53 263 9.6 20.9 0.00 0.00 0.00 98 1008.3
20260507070548 53 240 7.8 20.9 0.00 0.00 0.00 98 1008.3
20260507070424 53 175 9.6 20.9 0.00 0.00 0.00 98 1008.3
20260507070343 53 102 11.3 20.9 0.00 0.00 0.00 98 1008.3
20260507070233 53 261 10.4 15.6 0.00 0.00 0.00 98 1008.3
20260507070147 53 318 12.2 15.6 0.00 0.00 0.00 98 1008.3
20260507070043 53 246 12.2 15.6 0.00 0.00 0.00 98 1008.3
20260507070003 53 315 10.4 14.8 0.00 0.00 0.00 98 1008.3
20260507065859 53 257 9.6 14.8 0.00 0.00 0.00 98 1008.6
20260507065736 53 198 9.6 14.8 0.00 0.00 0.00 98 1008.6
20260507065636 53 311 10.4 14.8 0.00 0.00 0.00 98 1008.6
20260507065538 53 292 8.7 14.8 0.00 0.00 0.00 98 1008.6
20260507065437 53 325 9.6 14.8 0.00 0.00 0.00 98 1008.6
20260507065339 53 296 9.6 14.8 0.00 0.00 0.00 98 1008.6
20260507065237 53 316 10.4 14.8 0.00 0.00 0.00 98 1008.6
20260507065136 53 86 9.6 14.8 0.00 0.00 0.00 98 1008.6
20260507065034 53 209 8.7 14.8 0.00 0.00 0.00 98 1008.6
20260507064933 53 316 12.2 14.8 0.00 0.00 0.00 98 1008.6
20260507064852 53 356 10.4 14.8 0.00 0.00 0.00 98 1008.6
20260507064728 53 302 12.2 14.8 0.00 0.00 0.00 98 1008.6
20260507064657 53 241 11.3 14.8 0.00 0.00 0.00 98 1008.6
20260507064538 53 316 9.6 14.8 0.00 0.00 0.00 98 1008.6
20260507064437 53 250 7.8 14.8 0.00 0.00 0.00 98 1008.6
20260507064335 53 313 5.2 14.8 0.00 0.00 0.00 98 1007.9
20260507064234 53 319 7.8 14.8 0.00 0.00 0.00 98 1007.9
20260507064130 53 250 9.6 14.8 0.00 0.00 0.00 98 1007.9
20260507064029 53 326 9.6 14.8 0.00 0.00 0.00 98 1007.9
20260507063929 53 181 10.4 14.8 0.00 0.00 0.00 98 1007.9
20260507063831 53 309 9.6 13.9 0.00 0.00 0.00 98 1007.9
20260507063730 53 241 9.6 13.9 0.00 0.00 0.00 98 1007.9
20260507063628 53 316 10.4 15.6 0.00 0.00 0.00 98 1007.9
20260507063527 53 311 10.4 15.6 0.00 0.00 0.00 98 1007.9
20260507063425 53 144 9.6 15.6 0.00 0.00 0.00 98 1007.9
20260507063343 53 289 7.0 15.6 0.00 0.00 0.00 98 1007.9
20260507063227 53 288 8.7 15.6 0.00 0.00 0.00 98 1007.9
20260507063157 53 263 11.3 15.6 0.00 0.00 0.00 98 1007.9
20260507063034 53 193 11.3 15.6 0.00 0.00 0.00 98 1007.9
20260507062952 53 289 11.3 15.6 0.00 0.00 0.00 98 1007.9
20260507062830 53 243 9.6 15.6 0.00 0.00 0.00 98 1008.6
20260507062729 53 247 10.4 15.6 0.00 0.00 0.00 98 1008.6
20260507062628 53 320 7.8 14.8 0.00 0.00 0.00 98 1008.6
20260507062526 53 217 8.7 14.8 0.00 0.00 0.00 98 1008.6
20260507062429 53 328 8.7 14.8 0.00 0.00 0.00 98 1008.6
20260507062327 53 264 7.8 14.8 0.00 0.00 0.00 98 1008.6
20260507062226 53 304 9.6 14.8 0.00 0.00 0.00 98 1008.6
20260507062125 53 236 8.7 14.8 0.00 0.00 0.00 98 1008.6
20260507062024 53 206 12.2 15.6 0.00 0.00 0.00 98 1008.6
20260507061943 53 184 12.2 15.6 0.00 0.00 0.00 98 1008.6
20260507061824 53 202 9.6 15.6 0.00 0.00 0.00 98 1008.6
20260507061753 53 288 10.4 15.6 0.00 0.00 0.00 98 1008.6
20260507061645 53 182 11.3 15.6 0.00 0.00 0.00 98 1008.6
20260507061543 53 140 10.4 15.6 0.00 0.00 0.00 98 1008.6
20260507061442 53 182 9.6 15.6 0.00 0.00 0.00 98 1008.6
20260507061339 53 265 7.8 15.6 0.00 0.00 0.00 98 1009.8
20260507061237 53 313 11.3 15.6 0.00 0.00 0.00 98 1009.8
20260507061135 53 328 9.6 13.0 0.00 0.00 0.00 98 1009.8
20260507061039 53 217 7.8 13.0 0.00 0.00 0.00 98 1009.8
20260507060938 53 333 7.0 12.2 0.00 0.00 0.00 98 1009.8
20260507060837 53 309 7.8 12.2 0.00 0.00 0.00 98 1009.8
20260507060755 53 315 7.0 12.2 0.00 0.00 0.00 98 1009.8
20260507060632 53 287 8.7 12.2 0.00 0.00 0.00 98 1009.8
20260507060533 53 315 9.6 12.2 0.00 0.00 0.00 98 1009.8
20260507060431 53 302 7.0 12.2 0.00 0.00 0.00 98 1009.8
20260507060334 53 311 7.0 12.2 0.00 0.00 0.00 98 1009.8
20260507060254 53 295 10.4 12.2 0.00 0.00 0.00 98 1009.8
20260507060204 53 326 8.7 12.2 0.00 0.00 0.00 98 1009.8
20260507060043 53 313 9.6 12.2 0.00 0.00 0.00 98 1009.8
20260507055941 53 308 10.4 12.2 0.00 0.00 0.00 98 1009.8
20260507055838 53 304 8.7 13.9 0.00 0.00 0.00 98 1009.8
20260507055737 53 326 7.8 13.9 0.00 0.00 0.00 98 1009.8
20260507055636 53 329 6.1 13.9 0.00 0.00 0.00 98 1009.8
20260507055538 53 328 7.0 13.9 0.00 0.00 0.00 98 1009.8
20260507055436 53 267 6.1 13.9 0.00 0.00 0.00 98 1009.8
20260507055335 53 220 7.0 13.9 0.00 0.00 0.00 98 1009.8
20260507055253 53 329 9.6 13.9 0.00 0.00 0.00 98 1009.8
20260507055131 53 258 9.6 14.8 0.00 0.00 0.00 98 1009.8
20260507055030 53 301 9.6 14.8 0.00 0.00 0.00 98 1009.8
20260507054929 53 230 8.7 14.8 0.00 0.00 0.00 98 1009.8
20260507054832 53 261 7.8 14.8 0.00 0.00 0.00 98 1009.8
20260507054729 53 271 9.6 14.8 0.00 0.00 0.00 98 1009.8
20260507054657 54 196 9.6 14.8 0.00 0.00 0.00 98 1009.8
20260507054535 53 140 11.3 14.8 0.00 0.00 0.00 98 1009.8
20260507054434 53 244 8.7 14.8 0.00 0.00 0.00 98 1009.8
20260507054332 54 244 11.3 14.8 0.00 0.00 0.00 98 1009.4
20260507054234 54 289 8.7 14.8 0.00 0.00 0.00 98 1009.4
20260507054152 53 311 8.7 14.8 0.00 0.00 0.00 98 1009.4
20260507054034 53 267 8.7 14.8 0.00 0.00 0.00 98 1009.4
20260507053934 53 296 8.7 14.8 0.00 0.00 0.00 98 1009.4
20260507053833 53 284 9.6 14.8 0.00 0.00 0.00 98 1009.4
20260507053731 53 294 10.4 14.8 0.00 0.00 0.00 98 1009.4
20260507053630 53 227 12.2 14.8 0.00 0.00 0.00 98 1009.4
20260507053548 54 240 9.6 12.2 0.00 0.00 0.00 98 1009.4
20260507053427 53 325 9.6 12.2 0.00 0.00 0.00 98 1009.4
20260507053329 53 257 9.6 12.2 0.00 0.00 0.00 98 1009.4
20260507053249 53 306 10.4 12.2 0.00 0.00 0.00 98 1009.4
20260507053158 54 206 8.7 13.0 0.00 0.00 0.00 98 1009.4
20260507053035 54 265 9.6 14.8 0.00 0.00 0.00 98 1009.4
20260507052935 53 291 7.8 14.8 0.00 0.00 0.00 98 1009.4
20260507052833 53 291 9.6 14.8 0.00 0.00 0.00 98 1009.9
20260507052732 54 288 9.6 14.8 0.00 0.00 0.00 98 1009.9
20260507052633 53 305 8.7 14.8 0.00 0.00 0.00 98 1009.9
20260507052532 54 316 7.8 14.8 0.00 0.00 0.00 98 1009.9
20260507052431 54 227 7.8 14.8 0.00 0.00 0.00 98 1009.9
20260507052330 53 318 9.6 14.8 0.00 0.00 0.00 98 1009.9
20260507052228 54 212 10.4 14.8 0.00 0.00 0.00 98 1009.9
20260507052126 53 227 9.6 13.0 0.00 0.00 0.00 98 1009.9
20260507052026 53 186 10.4 15.6 0.00 0.00 0.00 98 1009.9
20260507051928 54 215 9.6 15.6 0.00 0.00 0.00 98 1009.9
20260507051826 54 285 8.7 15.6 0.00 0.00 0.00 98 1009.9
20260507051724 54 141 9.6 15.6 0.00 0.00 0.00 98 1009.9
20260507051655 53 328 9.6 15.6 0.00 0.00 0.00 98 1009.9
20260507051530 53 254 9.6 15.6 0.00 0.00 0.00 98 1009.9
20260507051429 54 147 11.3 15.6 0.00 0.00 0.00 98 1009.9
20260507051326 54 328 9.6 15.6 0.00 0.00 0.00 98 1009.8
20260507051229 54 319 11.3 15.6 0.00 0.00 0.00 98 1009.8
20260507051128 54 217 10.4 15.6 0.00 0.00 0.00 98 1009.8
20260507051026 54 247 9.6 15.6 0.00 0.00 0.00 98 1009.8
20260507050945 54 182 11.3 15.6 0.00 0.00 0.00 98 1009.8
20260507050843 54 205 10.4 14.8 0.00 0.00 0.00 98 1009.8
20260507050800 54 260 10.4 13.9 0.00 0.00 0.00 98 1009.8
20260507050658 54 244 10.4 13.9 0.00 0.00 0.00 98 1009.8
20260507050535 54 233 8.7 12.2 0.00 0.00 0.00 98 1009.8
20260507050434 54 256 7.8 12.2 0.00 0.00 0.00 98 1009.8
20260507050336 54 328 7.8 12.2 0.00 0.00 0.00 98 1009.8
20260507050234 54 316 7.8 12.2 0.00 0.00 0.00 98 1009.8
20260507050205 54 247 9.6 12.2 0.00 0.00 0.00 98 1009.8
20260507050041 54 326 9.6 12.2 0.00 0.00 0.00 98 1009.8
20260507045940 54 291 10.4 12.2 0.00 0.00 0.00 98 1009.8
20260507045902 54 306 8.7 12.2 0.00 0.00 0.00 98 1009.8
20260507045759 54 288 7.8 12.2 0.00 0.00 0.00 98 1009.8
20260507045636 54 319 7.8 12.2 0.00 0.00 0.00 98 1009.8
20260507045559 54 322 9.6 12.2 0.00 0.00 0.00 98 1009.8
20260507045436 54 329 7.0 12.2 0.00 0.00 0.00 98 1009.8
20260507045335 54 329 7.0 12.2 0.00 0.00 0.00 98 1009.8
20260507045233 54 143 8.7 12.2 0.00 0.00 0.00 98 1009.8
20260507045131 54 202 7.8 14.8 0.00 0.00 0.00 98 1009.8
20260507045030 54 312 8.7 14.8 0.00 0.00 0.00 98 1009.8
20260507044929 54 323 8.7 14.8 0.00 0.00 0.00 98 1009.8
20260507044831 54 325 10.4 14.8 0.00 0.00 0.00 98 1009.8
20260507044800 54 289 6.1 14.8 0.00 0.00 0.00 98 1009.8
20260507044647 54 205 7.0 14.8 0.00 0.00 0.00 98 1009.8
20260507044526 54 305 7.0 14.8 0.00 0.00 0.00 98 1009.8
20260507044425 54 127 9.6 14.8 0.00 0.00 0.00 98 1009.8
20260507044343 54 272 8.7 14.8 0.00 0.00 0.00 98 1009.6
20260507044242 54 275 8.7 14.8 0.00 0.00 0.00 98 1009.6
20260507044141 54 174 8.7 11.3 0.00 0.00 0.00 98 1009.6
20260507044103 54 318 7.8 12.2 0.00 0.00 0.00 98 1009.6
20260507043940 54 274 7.8 12.2 0.00 0.00 0.00 98 1009.6
20260507043839 54 296 7.8 12.2 0.00 0.00 0.00 98 1009.6
20260507043738 54 199 9.6 12.2 0.00 0.00 0.00 98 1009.6
20260507043637 54 320 6.1 12.2 0.00 0.00 0.00 98 1009.6
20260507043534 54 325 4.3 12.2 0.00 0.00 0.00 98 1009.6
20260507043432 54 138 7.8 12.2 0.00 0.00 0.00 98 1009.6
20260507043331 54 330 10.4 12.2 0.00 0.00 0.00 98 1009.6
20260507043253 54 309 10.4 12.2 0.00 0.00 0.00 98 1009.6
20260507043224 54 336 8.7 12.2 0.00 0.00 0.00 98 1009.6
20260507043038 54 313 7.8 12.2 0.00 0.00 0.00 98 1009.6
20260507042937 54 264 7.0 12.2 0.00 0.00 0.00 98 1009.6
20260507042859 54 328 7.0 12.2 0.00 0.00 0.00 98 1009.8
20260507042736 54 301 8.7 12.2 0.00 0.00 0.00 98 1009.8
20260507042634 54 311 7.8 12.2 0.00 0.00 0.00 98 1009.8
20260507042532 54 244 9.6 12.2 0.00 0.00 0.00 98 1009.8
20260507042434 54 124 10.4 12.2 0.00 0.00 0.00 98 1009.8
20260507042332 54 328 10.4 12.2 0.00 0.00 0.00 98 1009.8
20260507042230 54 326 8.7 12.2 0.00 0.00 0.00 98 1009.8
20260507042128 54 268 7.8 12.2 0.00 0.00 0.00 98 1009.8
20260507042027 54 288 10.4 12.2 0.00 0.00 0.00 98 1009.8
20260507041945 54 298 9.6 12.2 0.00 0.00 0.00 98 1009.8
20260507041842 54 199 8.7 12.2 0.00 0.00 0.00 98 1009.8
20260507041735 54 254 10.4 12.2 0.00 0.00 0.00 98 1009.8
20260507041645 54 284 7.0 10.4 0.00 0.00 0.00 98 1009.8
20260507041542 54 232 6.1 10.4 0.00 0.00 0.00 98 1009.8
20260507041422 54 328 8.7 11.3 0.00 0.00 0.00 98 1009.8
20260507041344 54 220 7.8 12.2 0.00 0.00 0.00 98 1009.3
20260507041302 54 280 7.8 12.2 0.00 0.00 0.00 98 1009.3
20260507041140 54 299 8.7 12.2 0.00 0.00 0.00 98 1009.3
20260507041039 54 240 6.1 12.2 0.00 0.00 0.00 98 1009.3
20260507040941 54 287 7.0 12.2 0.00 0.00 0.00 98 1009.3
20260507040839 54 320 7.8 12.2 0.00 0.00 0.00 98 1009.3
20260507040738 54 322 7.0 12.2 0.00 0.00 0.00 98 1009.3
20260507040656 54 107 8.7 12.2 0.00 0.00 0.00 98 1009.3
20260507040534 54 298 8.7 12.2 0.00 0.00 0.00 98 1009.3
20260507040434 54 302 9.6 12.2 0.00 0.00 0.00 98 1009.3
20260507040332 54 296 7.8 11.3 0.00 0.00 0.00 98 1009.3
20260507040235 54 328 6.1 11.3 0.00 0.00 0.00 98 1009.3
20260507040205 54 165 7.0 12.2 0.00 0.00 0.00 98 1009.3
20260507040042 54 325 7.8 12.2 0.00 0.00 0.00 98 1009.3
20260507040002 54 257 7.8 12.2 0.00 0.00 0.00 98 1009.3
20260507035900 54 322 7.8 12.2 0.00 0.00 0.00 98 1009.6
20260507035738 54 332 7.8 12.2 0.00 0.00 0.00 98 1009.6
20260507035657 54 328 7.8 12.2 0.00 0.00 0.00 98 1009.6
20260507035534 54 263 7.8 12.2 0.00 0.00 0.00 98 1009.6
20260507035432 54 323 7.8 12.2 0.00 0.00 0.00 98 1009.6
20260507035336 54 104 7.8 12.2 0.00 0.00 0.00 98 1009.6
20260507035235 54 304 7.8 11.3 0.00 0.00 0.00 98 1009.6
20260507035133 54 301 7.8 11.3 0.00 0.00 0.00 98 1009.6
20260507035032 54 313 8.7 11.3 0.00 0.00 0.00 98 1009.6
20260507034951 54 188 7.8 11.3 0.00 0.00 0.00 98 1009.6
20260507034828 54 322 7.8 11.3 0.00 0.00 0.00 98 1009.6
20260507034726 54 232 7.8 11.3 0.00 0.00 0.00 98 1009.6
20260507034700 54 315 7.8 11.3 0.00 0.00 0.00 98 1009.6
20260507034542 54 304 8.7 11.3 0.00 0.00 0.00 98 1009.6
20260507034440 54 234 8.7 11.3 0.00 0.00 0.00 98 1009.6
20260507034339 54 328 7.8 11.3 0.00 0.00 0.00 98 1010.2
20260507034300 54 61 7.0 12.2 0.00 0.00 0.00 98 1010.2
20260507034137 54 220 6.1 12.2 0.00 0.00 0.00 98 1010.2
20260507034035 54 280 7.0 12.2 0.00 0.00 0.00 98 1010.2
20260507033953 54 195 5.2 12.2 0.00 0.00 0.00 98 1010.2
20260507033835 54 103 6.1 12.2 0.00 0.00 0.00 98 1010.2
20260507033736 54 280 7.0 12.2 0.00 0.00 0.00 98 1010.2
20260507033635 54 229 7.8 12.2 0.00 0.00 0.00 98 1010.2
20260507033534 54 257 8.7 12.2 0.00 0.00 0.00 98 1010.2
20260507033432 54 251 10.4 12.2 0.00 0.00 0.00 98 1010.2
20260507033330 54 332 8.7 11.3 0.00 0.00 0.00 98 1010.2
20260507033249 54 319 9.6 12.2 0.00 0.00 0.00 98 1010.2
20260507033204 54 323 9.6 12.2 0.00 0.00 0.00 98 1010.2
20260507033101 54 258 7.0 12.2 0.00 0.00 0.00 98 1010.2
20260507032938 54 353 7.8 14.8 0.00 0.00 0.00 98 1010.2
20260507032837 54 244 7.8 14.8 0.00 0.00 0.00 98 1009.5
20260507032737 54 326 7.8 14.8 0.00 0.00 0.00 98 1009.5
20260507032635 55 308 9.6 14.8 0.00 0.00 0.00 98 1009.5
20260507032532 54 322 9.6 14.8 0.00 0.00 0.00 98 1009.5
20260507032430 54 302 8.7 14.8 0.00 0.00 0.00 98 1009.5
20260507032332 55 257 7.8 14.8 0.00 0.00 0.00 98 1009.5
20260507032230 55 271 9.6 14.8 0.00 0.00 0.00 98 1009.5
20260507032129 55 322 9.6 14.8 0.00 0.00 0.00 98 1009.5
20260507032028 55 203 8.7 13.9 0.00 0.00 0.00 98 1009.5
20260507031926 55 217 11.3 13.9 0.00 0.00 0.00 98 1009.5
20260507031825 55 296 8.7 12.2 0.00 0.00 0.00 98 1009.5
20260507031743 55 158 8.7 12.2 0.00 0.00 0.00 98 1009.5
20260507031717 55 296 9.6 12.2 0.00 0.00 0.00 98 1009.5
20260507031554 55 296 9.6 12.2 0.00 0.00 0.00 98 1009.5
20260507031432 55 219 9.6 12.2 0.00 0.00 0.00 98 1009.5
20260507031330 55 312 7.0 12.2 0.00 0.00 0.00 98 1009.7
20260507031249 55 305 7.0 12.2 0.00 0.00 0.00 98 1009.7
20260507031148 55 287 8.7 12.2 0.00 0.00 0.00 98 1009.7
20260507031045 55 196 7.8 11.3 0.00 0.00 0.00 98 1009.7
20260507031004 55 237 7.0 11.3 0.00 0.00 0.00 98 1009.7
20260507030842 55 264 7.0 11.3 0.00 0.00 0.00 98 1009.7
20260507030724 55 220 8.7 11.3 0.00 0.00 0.00 98 1009.7
20260507030643 55 216 7.8 11.3 0.00 0.00 0.00 98 1009.7
20260507030541 55 319 8.7 11.3 0.00 0.00 0.00 98 1009.7
20260507030440 55 309 9.6 12.2 0.00 0.00 0.00 98 1009.7
20260507030338 55 232 9.6 12.2 0.00 0.00 0.00 98 1009.7
20260507030237 55 280 8.7 12.2 0.00 0.00 0.00 98 1009.7
20260507030205 55 240 8.7 12.2 0.00 0.00 0.00 98 1009.7
20260507030027 55 323 7.8 12.2 0.00 0.00 0.00 98 1009.7
20260507025945 55 309 8.7 12.2 0.00 0.00 0.00 97 1009.7
20260507025841 55 316 7.8 12.2 0.00 0.00 0.00 97 1009.8
20260507025737 55 267 8.7 12.2 0.00 0.00 0.00 97 1009.8
20260507025656 55 261 8.7 12.2 0.00 0.00 0.00 97 1009.8
20260507025535 55 226 9.6 12.2 0.00 0.00 0.00 97 1009.8
20260507025437 55 189 10.4 12.2 0.00 0.00 0.00 97 1009.8
20260507025335 55 291 10.4 12.2 0.00 0.00 0.00 97 1009.8
20260507025237 55 246 9.6 11.3 0.00 0.00 0.00 98 1009.8
20260507025136 55 193 9.6 10.4 0.00 0.00 0.00 98 1009.8
20260507025034 55 285 8.7 10.4 0.00 0.00 0.00 98 1009.8
20260507024932 55 185 7.8 10.4 0.00 0.00 0.00 98 1009.8
20260507024830 55 264 9.6 10.4 0.00 0.00 0.00 97 1009.8
20260507024728 55 304 7.0 9.6 0.00 0.00 0.00 98 1009.8
20260507024657 55 104 7.0 10.4 0.00 0.00 0.00 98 1009.8
20260507024539 55 220 5.2 10.4 0.00 0.00 0.00 97 1009.8
20260507024438 55 219 5.2 10.4 0.00 0.00 0.00 97 1009.8
20260507024337 55 312 6.1 10.4 0.00 0.00 0.00 97 1009.3
20260507024236 55 313 7.0 11.3 0.00 0.00 0.00 97 1009.3
20260507024135 55 69 7.8 11.3 0.00 0.00 0.00 97 1009.3
20260507024033 55 130 6.1 11.3 0.00 0.00 0.00 97 1009.3
20260507023932 56 217 7.8 11.3 0.00 0.00 0.00 97 1009.3
20260507023854 56 229 8.7 11.3 0.00 0.00 0.00 97 1009.3
20260507023732 56 323 8.7 11.3 0.00 0.00 0.00 97 1009.3
20260507023630 56 223 9.6 11.3 0.00 0.00 0.00 97 1009.3
20260507023528 56 281 7.0 11.3 0.00 0.00 0.00 97 1009.3
20260507023427 56 322 8.7 11.3 0.00 0.00 0.00 98 1009.3
20260507023325 56 220 6.1 10.4 0.00 0.00 0.00 98 1009.3
20260507023235 56 248 8.7 10.4 0.00 0.00 0.00 98 1009.3
20260507023149 56 323 8.7 10.4 0.00 0.00 0.00 98 1009.3
20260507023026 56 253 6.1 9.6 0.00 0.00 0.00 98 1009.3
20260507022924 56 109 5.2 9.6 0.00 0.00 0.00 98 1009.3
20260507022843 56 322 5.2 9.6 0.00 0.00 0.00 98 1009.6
20260507022742 56 305 4.3 9.6 0.00 0.00 0.00 98 1009.6
20260507022640 56 271 4.3 9.6 0.00 0.00 0.00 98 1009.6
20260507022538 56 229 5.2 9.6 0.00 0.00 0.00 97 1009.6
20260507022440 56 326 7.0 9.6 0.00 0.00 0.00 97 1009.6
20260507022339 56 319 7.8 9.6 0.00 0.00 0.00 97 1009.6
20260507022237 56 322 7.8 9.6 0.00 0.00 0.00 97 1009.6
20260507022136 56 309 7.0 8.7 0.00 0.00 0.00 97 1009.6
20260507022054 56 250 6.1 7.8 0.00 0.00 0.00 97 1009.6
20260507021930 56 299 4.3 7.8 0.00 0.00 0.00 97 1009.6
20260507021829 56 174 3.5 7.8 0.00 0.00 0.00 97 1009.6
20260507021733 56 86 3.5 7.8 0.00 0.00 0.00 97 1009.6
20260507021703 56 148 4.3 7.8 0.00 0.00 0.00 97 1009.6
20260507021540 56 325 5.2 7.8 0.00 0.00 0.00 98 1009.6
20260507021438 56 326 6.1 7.8 0.00 0.00 0.00 98 1009.6
20260507021337 56 329 6.1 7.8 0.00 0.00 0.00 98 1009.2
20260507021239 56 226 6.1 7.8 0.00 0.00 0.00 98 1009.2
20260507021138 56 328 7.0 7.8 0.00 0.00 0.00 98 1009.2
20260507021041 56 318 6.1 7.8 0.00 0.00 0.00 97 1009.2
20260507020959 56 320 5.2 6.1 0.00 0.00 0.00 98 1009.2
20260507020837 56 145 3.5 7.0 0.00 0.00 0.00 98 1009.2
20260507020736 56 295 3.5 7.0 0.00 0.00 0.00 98 1009.2
20260507020656 56 288 5.2 7.0 0.00 0.00 0.00 97 1009.2
20260507020534 56 329 5.2 7.0 0.00 0.00 0.00 97 1009.2
20260507020431 56 219 5.2 7.0 0.00 0.00 0.00 97 1009.2
20260507020330 56 169 5.2 7.0 0.00 0.00 0.00 97 1009.2
20260507020232 56 157 5.2 7.0 0.00 0.00 0.00 97 1009.2
20260507020202 56 215 5.2 7.0 0.00 0.00 0.00 97 1009.2
20260507020038 56 160 6.1 7.0 0.00 0.00 0.00 97 1009.2
20260507015937 56 318 6.1 7.0 0.00 0.00 0.00 97 1009.2
20260507015835 56 322 6.1 7.0 0.00 0.00 0.00 97 1009.2
20260507015734 56 270 5.2 7.0 0.00 0.00 0.00 97 1009.2
20260507015634 56 270 5.2 7.0 0.00 0.00 0.00 97 1009.2
20260507015537 56 230 4.3 7.0 0.00 0.00 0.00 97 1009.2
20260507015456 56 247 5.2 7.0 0.00 0.00 0.00 97 1009.2
20260507015334 56 329 5.2 7.0 0.00 0.00 0.00 97 1009.2
20260507015232 56 326 5.2 7.0 0.00 0.00 0.00 97 1009.2
20260507015130 56 222 5.2 7.0 0.00 0.00 0.00 97 1009.2
20260507015048 56 130 6.1 7.0 0.00 0.00 0.00 97 1009.2
20260507014925 56 332 4.3 7.0 0.00 0.00 0.00 97 1009.2
20260507014829 56 312 4.3 8.7 0.00 0.00 0.00 97 1009.2
20260507014728 56 258 6.1 8.7 0.00 0.00 0.00 97 1009.2
20260507014657 56 309 6.1 9.6 0.00 0.00 0.00 97 1009.2
20260507014537 56 288 6.1 9.6 0.00 0.00 0.00 97 1009.2
20260507014456 56 326 6.1 9.6 0.00 0.00 0.00 97 1009.2
20260507014334 56 289 6.1 9.6 0.00 0.00 0.00 97 1009.1
20260507014235 56 203 6.1 9.6 0.00 0.00 0.00 97 1009.1
20260507014136 56 99 5.2 9.6 0.00 0.00 0.00 97 1009.1
20260507014038 56 117 6.1 9.6 0.00 0.00 0.00 97 1009.1
20260507013955 56 330 7.8 9.6 0.00 0.00 0.00 97 1009.1
20260507013833 56 75 7.0 9.6 0.00 0.00 0.00 97 1009.1
20260507013731 56 213 7.8 9.6 0.00 0.00 0.00 97 1009.1
20260507013628 56 278 7.0 9.6 0.00 0.00 0.00 97 1009.1
20260507013547 56 312 7.8 9.6 0.00 0.00 0.00 97 1009.1
20260507013445 56 295 7.8 9.6 0.00 0.00 0.00 97 1009.1
20260507013403 56 330 7.0 9.6 0.00 0.00 0.00 97 1009.1
20260507013236 56 182 7.0 9.6 0.00 0.00 0.00 97 1009.1
20260507013145 56 313 6.1 9.6 0.00 0.00 0.00 97 1009.1
20260507013041 56 323 6.1 9.6 0.00 0.00 0.00 97 1009.1
20260507012940 56 316 6.1 9.6 0.00 0.00 0.00 97 1009.1
20260507012838 56 322 7.0 9.6 0.00 0.00 0.00 97 1008.9
20260507012737 56 326 7.0 9.6 0.00 0.00 0.00 97 1008.9
20260507012637 56 326 7.8 9.6 0.00 0.00 0.00 97 1008.9
20260507012535 56 241 7.0 9.6 0.00 0.00 0.00 97 1008.9
20260507012437 56 145 6.1 9.6 0.00 0.00 0.00 97 1008.9
20260507012355 56 330 7.0 9.6 0.00 0.00 0.00 97 1008.9
20260507012232 56 329 6.1 10.4 0.00 0.00 0.00 97 1008.9
20260507012131 56 306 7.8 10.4 0.00 0.00 0.00 97 1008.9
20260507012029 56 319 8.7 10.4 0.00 0.00 0.00 97 1008.9
20260507011927 56 296 7.8 10.4 0.00 0.00 0.00 97 1008.9
20260507011825 56 92 6.1 10.4 0.00 0.00 0.00 97 1008.9
20260507011739 56 224 7.0 11.3 0.00 0.00 0.00 97 1008.9
20260507011651 56 304 7.8 11.3 0.00 0.00 0.00 97 1008.9
20260507011529 56 247 7.8 12.2 0.00 0.00 0.00 97 1008.9
20260507011447 56 329 7.8 12.2 0.00 0.00 0.00 97 1008.9
20260507011326 56 261 7.0 13.0 0.00 0.00 0.00 97 1009.3
20260507011244 56 325 7.0 13.0 0.00 0.00 0.00 97 1009.3
20260507011203 56 136 7.8 13.0 0.00 0.00 0.00 97 1009.3
20260507011042 56 319 8.7 13.0 0.00 0.00 0.00 97 1009.3
20260507010924 56 326 8.7 13.0 0.00 0.00 0.00 97 1009.3
20260507010842 56 313 10.4 13.0 0.00 0.00 0.00 97 1009.3
20260507010800 56 219 8.7 13.0 0.00 0.00 0.00 97 1009.3
20260507010638 57 169 10.4 13.0 0.00 0.00 0.00 97 1009.3
20260507010557 57 205 11.3 13.0 0.00 0.00 0.00 97 1009.3
20260507010435 57 328 8.7 11.3 0.00 0.00 0.00 97 1009.3
20260507010334 57 236 8.7 10.4 0.00 0.00 0.00 97 1009.3
20260507010243 57 95 7.0 10.4 0.00 0.00 0.00 97 1009.3
20260507010157 57 160 7.8 10.4 0.00 0.00 0.00 97 1009.3
20260507010034 57 328 7.0 9.6 0.00 0.00 0.00 97 1009.3
20260507005932 57 323 7.0 9.6 0.00 0.00 0.00 97 1009.3
20260507005850 57 160 7.0 9.6 0.00 0.00 0.00 97 1009.4
20260507005727 57 329 7.0 9.6 0.00 0.00 0.00 97 1009.4
20260507005627 57 302 6.1 9.6 0.00 0.00 0.00 97 1009.4
20260507005525 57 264 7.0 9.6 0.00 0.00 0.00 97 1009.4
20260507005427 57 268 6.1 9.6 0.00 0.00 0.00 97 1009.4
20260507005324 57 329 7.8 9.6 0.00 0.00 0.00 97 1009.4
20260507005243 57 165 7.8 9.6 0.00 0.00 0.00 97 1009.4
20260507005140 57 285 7.0 9.6 0.00 0.00 0.00 97 1009.4
20260507005039 57 326 7.8 9.6 0.00 0.00 0.00 97 1009.4
20260507004937 57 330 7.8 10.4 0.00 0.00 0.00 97 1009.4
20260507004835 57 328 7.8 10.4 0.00 0.00 0.00 97 1009.4
20260507004744 57 328 6.1 10.4 0.00 0.00 0.00 97 1009.4
20260507004657 57 329 7.0 10.4 0.00 0.00 0.00 97 1009.4
20260507004535 57 281 7.0 10.4 0.00 0.00 0.00 97 1009.4
20260507004432 57 320 7.0 10.4 0.00 0.00 0.00 97 1009.4
20260507004331 57 330 7.8 10.4 0.00 0.00 0.00 97 1009.6
20260507004229 57 319 6.1 10.4 0.00 0.00 0.00 97 1009.6
20260507004127 57 244 7.8 10.4 0.00 0.00 0.00 97 1009.6
20260507004027 57 330 7.0 9.6 0.00 0.00 0.00 97 1009.6
20260507003949 57 298 7.0 9.6 0.00 0.00 0.00 97 1009.6
20260507003827 57 325 7.8 9.6 0.00 0.00 0.00 97 1009.6
20260507003726 57 316 7.8 9.6 0.00 0.00 0.00 97 1009.6
20260507003625 57 144 7.0 9.6 0.00 0.00 0.00 97 1009.6
20260507003528 57 330 2.6 9.6 0.00 0.00 0.00 97 1009.6
20260507003426 57 325 3.5 9.6 0.00 0.00 0.00 97 1009.6
20260507003324 57 326 6.1 10.4 0.00 0.00 0.00 97 1009.6
20260507003247 57 330 7.0 12.2 0.00 0.00 0.00 97 1009.6
20260507003157 57 323 6.1 12.2 0.00 0.00 0.00 97 1009.6
20260507003033 58 284 6.1 12.2 0.00 0.00 0.00 97 1009.6
20260507002953 57 323 6.1 12.2 0.00 0.00 0.00 97 1009.6
20260507002830 57 325 7.0 13.9 0.00 0.00 0.00 97 1009.1
20260507002749 57 281 6.1 13.9 0.00 0.00 0.00 97 1009.1
20260507002627 57 326 7.0 13.9 0.00 0.00 0.00 97 1009.1
20260507002526 57 126 7.0 13.9 0.00 0.00 0.00 97 1009.1
20260507002432 57 184 7.8 13.9 0.00 0.00 0.00 97 1009.1
20260507002330 57 323 7.8 13.9 0.00 0.00 0.00 97 1009.1
20260507002229 57 287 6.1 13.9 0.00 0.00 0.00 97 1009.1
20260507002127 57 313 7.0 13.9 0.00 0.00 0.00 97 1009.1
20260507002046 57 256 7.8 13.9 0.00 0.00 0.00 97 1009.1
20260507001924 57 241 8.7 13.9 0.00 0.00 0.00 97 1009.1
20260507001843 57 326 7.8 13.9 0.00 0.00 0.00 97 1009.1
20260507001737 58 265 9.6 13.9 0.00 0.00 0.00 97 1009.1
20260507001646 57 271 11.3 13.9 0.00 0.00 0.00 97 1009.1
20260507001544 58 329 10.4 13.9 0.00 0.00 0.00 97 1009.1
20260507001441 58 200 7.8 13.9 0.00 0.00 0.00 97 1009.1
20260507001340 58 184 10.4 13.9 0.00 0.00 0.00 97 1009.5
20260507001238 58 227 7.8 13.9 0.00 0.00 0.00 97 1009.5
20260507001136 58 263 8.7 12.2 0.00 0.00 0.00 97 1009.5
20260507001033 58 232 9.6 12.2 0.00 0.00 0.00 97 1009.5
20260507000937 58 329 8.7 12.2 0.00 0.00 0.00 97 1009.5
20260507000835 58 325 8.7 12.2 0.00 0.00 0.00 97 1009.5
20260507000754 58 92 8.7 12.2 0.00 0.00 0.00 97 1009.5
20260507000631 58 189 7.8 12.2 0.00 0.00 0.00 97 1009.5
20260507000532 58 308 7.8 12.2 0.00 0.00 0.00 97 1009.5
20260507000429 58 251 7.8 12.2 0.00 0.00 0.00 97 1009.5
20260507000329 58 354 7.8 11.3 0.00 0.00 0.00 97 1009.5
20260507000248 58 227 6.1 11.3 0.00 0.00 0.00 97 1009.5
20260507000222 58 356 7.0 11.3 0.00 0.00 0.00 97 1009.5
20260507000038 58 328 7.8 11.3 0.00 0.00 0.00 97 1009.5
20260506235937 58 281 6.1 11.3 0.00 0.00 0.00 97 1009.5
20260506235836 58 137 5.2 11.3 0.00 0.00 0.00 97 1009.0
20260506235734 58 360 6.1 11.3 0.00 0.00 0.00 97 1009.0
20260506235631 58 174 5.2 11.3 0.00 0.00 0.00 97 1009.0
20260506235529 58 333 4.3 11.3 0.00 0.00 0.00 97 1009.0
20260506235433 58 329 3.5 11.3 0.00 0.00 0.00 97 1009.0
20260506235332 58 326 6.1 13.9 0.00 0.00 0.00 97 1009.0
20260506235232 58 328 5.2 13.9 0.00 0.00 0.00 97 1009.0
20260506235150 59 119 9.6 13.9 0.00 0.00 0.00 97 1009.0
20260506235046 59 109 6.1 13.9 0.00 0.00 0.00 97 1009.0
20260506234925 59 294 7.0 13.9 0.00 0.00 0.00 97 1009.0
20260506234824 58 220 5.2 13.9 0.00 0.00 0.00 97 1009.0
20260506234755 59 167 7.0 13.9 0.00 0.00 0.00 97 1009.0
20260506234645 59 328 7.0 13.9 0.00 0.00 0.00 97 1009.0
20260506234544 59 199 7.8 13.9 0.00 0.00 0.00 97 1009.0
20260506234442 59 172 7.8 10.4 0.00 0.00 0.00 97 1009.0
20260506234322 59 318 7.0 9.6 0.00 0.00 0.00 97 1009.0
20260506234243 59 277 6.1 9.6 0.00 0.00 0.00 97 1009.0
20260506234142 59 220 4.3 7.0 0.00 0.00 0.00 97 1009.0
20260506234041 59 247 5.2 7.8 0.00 0.00 0.00 97 1009.0
20260506233958 59 145 5.2 9.6 0.00 0.00 0.00 97 1009.0
20260506233840 59 212 5.2 9.6 0.00 0.00 0.00 97 1009.0
20260506233738 59 359 4.3 9.6 0.00 0.00 0.00 97 1009.0
20260506233637 59 329 5.2 9.6 0.00 0.00 0.00 96 1009.0
20260506233536 59 330 5.2 9.6 0.00 0.00 0.00 97 1009.0
20260506233454 59 296 5.2 9.6 0.00 0.00 0.00 96 1009.0
20260506233332 59 329 6.1 9.6 0.00 0.00 0.00 96 1009.0
20260506233301 59 308 7.0 9.6 0.00 0.00 0.00 96 1009.0
20260506233151 59 316 7.0 9.6 0.00 0.00 0.00 96 1009.0
20260506233032 59 274 5.2 9.6 0.00 0.00 0.00 96 1009.0
20260506232950 59 306 5.2 10.4 0.00 0.00 0.00 96 1009.0
20260506232828 59 206 7.0 10.4 0.00 0.00 0.00 96 1009.3
20260506232725 59 333 5.2 10.4 0.00 0.00 0.00 96 1009.3
20260506232643 59 72 7.0 10.4 0.00 0.00 0.00 96 1009.3
20260506232540 59 282 7.0 10.4 0.00 0.00 0.00 96 1009.3
20260506232459 59 308 6.1 12.2 0.00 0.00 0.00 96 1009.3
20260506232336 59 304 6.1 12.2 0.00 0.00 0.00 96 1009.3
20260506232239 59 113 6.1 12.2 0.00 0.00 0.00 96 1009.3
20260506232137 60 346 7.0 12.2 0.00 0.00 0.00 96 1009.3
20260506232035 60 356 6.1 12.2 0.00 0.00 0.00 96 1009.3
20260506231934 60 243 6.1 13.0 0.00 0.00 0.00 96 1009.3
20260506231833 60 330 7.8 13.0 0.00 0.00 0.00 96 1009.3
20260506231743 60 141 6.1 13.0 0.00 0.00 0.00 96 1009.3
20260506231652 60 176 8.7 13.0 0.00 0.00 0.00 96 1009.3
20260506231535 60 14 6.1 13.0 0.00 0.00 0.00 96 1009.3
20260506231436 60 239 7.8 13.0 0.00 0.00 0.00 96 1009.3
20260506231333 61 295 8.7 13.0 0.00 0.00 0.00 96 1009.2
20260506231233 61 328 8.7 13.0 0.00 0.00 0.00 96 1009.2
20260506231131 61 340 9.6 13.0 0.00 0.00 0.00 96 1009.2
20260506231029 61 328 8.7 11.3 0.00 0.00 0.00 96 1009.2
20260506230927 61 356 7.8 11.3 0.00 0.00 0.00 96 1009.2
20260506230850 61 313 7.0 11.3 0.00 0.00 0.00 96 1009.2
20260506230726 62 328 7.8 11.3 0.00 0.00 0.00 96 1009.2
20260506230644 62 352 7.0 11.3 0.00 0.00 0.00 96 1009.2
20260506230542 62 326 6.1 11.3 0.00 0.00 0.00 96 1009.2
20260506230441 62 323 6.1 11.3 0.00 0.00 0.00 97 1009.2
20260506230400 62 229 7.0 11.3 0.00 0.00 0.00 97 1009.2
20260506230237 62 329 7.0 10.4 0.00 0.00 0.00 97 1009.2
20260506230207 62 319 7.0 10.4 0.00 0.00 0.00 97 1009.2
20260506230104 62 349 5.2 10.4 0.00 0.00 0.00 97 1009.2
20260506225941 62 136 6.1 10.4 0.00 0.00 0.00 97 1009.2
20260506225903 62 337 6.1 10.4 0.00 0.00 0.00 97 1009.0
20260506225741 62 344 7.0 10.4 0.00 0.00 0.00 97 1009.0
20260506225639 62 329 7.0 10.4 0.00 0.00 0.00 97 1009.0
20260506225538 62 332 7.0 10.4 0.00 0.00 0.00 97 1009.0
20260506225436 62 328 7.0 10.4 0.00 0.00 0.00 97 1009.0
20260506225355 63 333 4.3 10.4 0.00 0.00 0.00 97 1009.0
20260506225233 62 316 4.3 10.4 0.00 0.00 0.00 97 1009.0
20260506225152 62 350 7.8 10.4 0.00 0.00 0.00 97 1009.0
20260506225034 62 185 5.2 10.4 0.00 0.00 0.00 97 1009.0
20260506224954 63 326 4.3 10.4 0.00 0.00 0.00 97 1009.0
20260506224831 62 326 8.7 10.4 0.00 0.00 0.00 97 1009.0
20260506224741 62 333 6.1 10.4 0.00 0.00 0.00 97 1009.0
20260506224649 62 333 4.3 10.4 0.00 0.00 0.00 97 1009.0
20260506224526 62 333 1.7 10.4 0.00 0.00 0.00 97 1009.0
20260506224424 62 319 5.2 10.4 0.00 0.00 0.00 97 1009.0
20260506224328 62 347 5.2 10.4 0.00 0.00 0.00 97 1008.6
20260506224226 62 326 7.0 10.4 0.00 0.00 0.00 97 1008.6
20260506224124 62 325 5.2 10.4 0.00 0.00 0.00 97 1008.6
20260506224043 62 325 5.2 10.4 0.00 0.00 0.00 97 1008.6
20260506223942 62 326 4.3 10.4 0.00 0.00 0.00 97 1008.6
20260506223839 62 329 6.1 10.4 0.00 0.00 0.00 97 1008.6
20260506223759 62 315 7.0 10.4 0.00 0.00 0.00 97 1008.6
20260506223636 62 328 6.1 11.3 0.00 0.00 0.00 97 1008.6
20260506223538 62 330 3.5 11.3 0.00 0.00 0.00 97 1008.6
20260506223436 62 323 4.3 11.3 0.00 0.00 0.00 97 1008.6
20260506223334 62 329 6.1 11.3 0.00 0.00 0.00 97 1008.6
20260506223243 62 328 2.6 11.3 0.00 0.00 0.00 97 1008.6
20260506223154 62 335 4.3 11.3 0.00 0.00 0.00 97 1008.6
20260506223030 62 333 5.2 11.3 0.00 0.00 0.00 97 1008.6
20260506222928 63 54 5.2 11.3 0.00 0.00 0.00 97 1008.6
20260506222831 62 319 7.0 11.3 0.00 0.00 0.00 97 1008.2
20260506222730 62 326 7.0 11.3 0.00 0.00 0.00 97 1008.2
20260506222628 62 306 6.1 11.3 0.00 0.00 0.00 97 1008.2
20260506222525 62 333 7.0 11.3 0.00 0.00 0.00 97 1008.2
20260506222424 62 346 6.1 11.3 0.00 0.00 0.00 97 1008.2
20260506222342 63 333 7.0 11.3 0.00 0.00 0.00 97 1008.2
20260506222241 63 326 6.1 10.4 0.00 0.00 0.00 97 1008.2
20260506222200 63 315 6.1 10.4 0.00 0.00 0.00 97 1008.2
20260506222041 63 326 7.0 10.4 0.00 0.00 0.00 97 1008.2
20260506221938 63 329 7.0 10.4 0.00 0.00 0.00 97 1008.2
20260506221835 62 333 5.2 10.4 0.00 0.00 0.00 97 1008.2
20260506221734 63 328 5.2 10.4 0.00 0.00 0.00 97 1008.2
20260506221703 62 315 4.3 10.4 0.00 0.00 0.00 97 1008.2
20260506221601 63 357 5.2 10.4 0.00 0.00 0.00 97 1008.2
20260506221439 62 333 7.0 10.4 0.00 0.00 0.00 97 1008.2
20260506221336 63 349 6.1 10.4 0.00 0.00 0.00 97 1008.8
20260506221238 62 340 4.3 10.4 0.00 0.00 0.00 97 1008.8
20260506221137 63 325 5.2 10.4 0.00 0.00 0.00 97 1008.8
20260506221037 63 342 7.8 10.4 0.00 0.00 0.00 97 1008.8
20260506220935 63 330 7.8 9.6 0.00 0.00 0.00 97 1008.8
20260506220853 62 322 5.2 7.8 0.00 0.00 0.00 97 1008.8
20260506220731 63 350 4.3 6.1 0.00 0.00 0.00 97 1008.8
20260506220650 62 316 5.2 6.1 0.00 0.00 0.00 97 1008.8
20260506220527 62 325 1.7 6.1 0.00 0.00 0.00 97 1008.8
20260506220428 62 325 3.5 6.1 0.00 0.00 0.00 97 1008.8
20260506220328 62 323 0.9 6.1 0.00 0.00 0.00 97 1008.8
20260506220237 62 315 0.9 7.0 0.00 0.00 0.00 97 1008.8
20260506220147 62 319 2.6 7.0 0.00 0.00 0.00 97 1008.8
20260506220044 62 319 3.5 7.0 0.00 0.00 0.00 97 1008.8
20260506215941 62 325 3.5 7.0 0.00 0.00 0.00 97 1008.8
20260506215841 62 313 3.5 7.0 0.00 0.00 0.00 97 1008.0
20260506215739 62 319 0.9 7.0 0.00 0.00 0.00 97 1008.0
20260506215642 62 316 3.5 7.0 0.00 0.00 0.00 97 1008.0
20260506215602 62 319 5.2 7.0 0.00 0.00 0.00 97 1008.0
20260506215439 62 333 4.3 7.0 0.00 0.00 0.00 97 1008.0
20260506215336 62 326 3.5 7.0 0.00 0.00 0.00 97 1008.0
20260506215232 62 322 2.6 7.0 0.00 0.00 0.00 97 1008.0
20260506215131 62 329 3.5 7.0 0.00 0.00 0.00 97 1008.0
20260506215029 62 326 2.6 7.0 0.00 0.00 0.00 97 1008.0
20260506214928 62 333 3.5 7.0 0.00 0.00 0.00 97 1008.0
20260506214829 62 323 5.2 7.0 0.00 0.00 0.00 96 1008.0
20260506214740 62 320 3.5 6.1 0.00 0.00 0.00 96 1008.0
20260506214649 62 336 3.5 6.1 0.00 0.00 0.00 96 1008.0
20260506214527 62 340 5.2 6.1 0.00 0.00 0.00 97 1008.0
20260506214446 62 319 3.5 6.1 0.00 0.00 0.00 97 1008.0
20260506214344 62 340 3.5 6.1 0.00 0.00 0.00 96 1008.0
20260506214241 62 340 2.6 6.1 0.00 0.00 0.00 97 1008.0
20260506214159 62 342 2.6 6.1 0.00 0.00 0.00 97 1008.0
20260506214041 62 333 1.7 6.1 0.00 0.00 0.00 97 1008.0
20260506214000 62 326 3.5 6.1 0.00 0.00 0.00 96 1008.0
20260506213837 62 333 4.3 6.1 0.00 0.00 0.00 96 1008.0
20260506213736 62 332 4.3 6.1 0.00 0.00 0.00 96 1008.0
20260506213654 62 330 2.6 6.1 0.00 0.00 0.00 96 1008.0
20260506213531 62 309 1.7 6.1 0.00 0.00 0.00 96 1008.0
20260506213449 63 323 1.7 7.0 0.00 0.00 0.00 96 1008.0
20260506213347 62 328 3.5 7.8 0.00 0.00 0.00 96 1008.0
20260506213246 62 328 5.2 7.8 0.00 0.00 0.00 96 1008.0
20260506213201 62 320 5.2 7.8 0.00 0.00 0.00 96 1008.0
20260506213040 62 326 4.3 7.8 0.00 0.00 0.00 96 1008.0
20260506212937 62 326 3.5 7.8 0.00 0.00 0.00 96 1008.0
20260506212837 62 333 3.5 7.8 0.00 0.00 0.00 96 1008.0
20260506212735 62 323 2.6 7.8 0.00 0.00 0.00 96 1008.0
20260506212634 62 332 5.2 7.8 0.00 0.00 0.00 96 1008.0
20260506212532 62 329 5.2 7.8 0.00 0.00 0.00 96 1008.0
20260506212434 62 326 3.5 7.8 0.00 0.00 0.00 96 1008.0
20260506212353 62 315 4.3 7.8 0.00 0.00 0.00 96 1008.0
20260506212229 62 326 3.5 7.8 0.00 0.00 0.00 96 1008.0
20260506212151 63 329 5.2 7.8 0.00 0.00 0.00 96 1008.0
20260506212029 62 326 6.1 7.8 0.00 0.00 0.00 96 1008.0
20260506211928 62 332 3.5 7.8 0.00 0.00 0.00 96 1008.0
20260506211827 62 337 5.2 7.8 0.00 0.00 0.00 96 1008.0
20260506211731 63 336 6.1 7.8 0.00 0.00 0.00 96 1008.0
20260506211659 62 335 5.2 7.8 0.00 0.00 0.00 96 1008.0
20260506211539 62 323 4.3 7.0 0.00 0.00 0.00 96 1008.0
20260506211458 62 315 3.5 9.6 0.00 0.00 0.00 96 1008.0
20260506211355 62 322 4.3 10.4 0.00 0.00 0.00 96 1007.9
20260506211233 62 322 5.2 10.4 0.00 0.00 0.00 96 1007.9
20260506211132 62 322 6.1 10.4 0.00 0.00 0.00 96 1007.9
20260506211030 62 309 5.2 10.4 0.00 0.00 0.00 96 1007.9
20260506210934 62 318 6.1 10.4 0.00 0.00 0.00 96 1007.9
20260506210832 62 326 5.2 10.4 0.00 0.00 0.00 96 1007.9
20260506210731 62 323 4.3 10.4 0.00 0.00 0.00 96 1007.9
20260506210650 62 320 4.3 10.4 0.00 0.00 0.00 96 1007.9
20260506210527 62 318 7.0 10.4 0.00 0.00 0.00 96 1007.9
20260506210429 62 322 7.8 9.6 0.00 0.00 0.00 96 1007.9
20260506210327 62 308 5.2 9.6 0.00 0.00 0.00 96 1007.9
20260506210228 62 322 4.3 9.6 0.00 0.00 0.00 96 1007.9
20260506210200 62 337 4.3 9.6 0.00 0.00 0.00 96 1007.9
20260506210037 62 323 4.3 9.6 0.00 0.00 0.00 96 1007.9
20260506205939 62 320 4.3 9.6 0.00 0.00 0.00 96 1007.9
20260506205838 62 326 5.2 9.6 0.00 0.00 0.00 96 1007.6
20260506205735 62 318 4.3 8.7 0.00 0.00 0.00 96 1007.6
20260506205635 62 320 3.5 8.7 0.00 0.00 0.00 96 1007.6
20260506205538 62 308 2.6 8.7 0.00 0.00 0.00 96 1007.6
20260506205437 62 308 4.3 8.7 0.00 0.00 0.00 96 1007.6
20260506205354 62 325 5.2 8.7 0.00 0.00 0.00 96 1007.6
20260506205254 62 330 5.2 8.7 0.00 0.00 0.00 96 1007.6
20260506205132 62 328 3.5 8.7 0.00 0.00 0.00 96 1007.6
20260506205030 62 322 4.3 8.7 0.00 0.00 0.00 96 1007.6
20260506204929 62 322 4.3 8.7 0.00 0.00 0.00 96 1007.6
20260506204828 62 306 3.5 8.7 0.00 0.00 0.00 96 1007.6
20260506204802 62 330 3.5 10.4 0.00 0.00 0.00 96 1007.6
20260506204651 62 323 4.3 10.4 0.00 0.00 0.00 96 1007.6
20260506204529 62 320 3.5 10.4 0.00 0.00 0.00 96 1007.6
20260506204447 62 322 2.6 10.4 0.00 0.00 0.00 96 1007.6
20260506204324 62 322 4.3 10.4 0.00 0.00 0.00 96 1008.1
20260506204242 62 316 4.3 10.4 0.00 0.00 0.00 96 1008.1
20260506204140 62 323 5.2 10.4 0.00 0.00 0.00 96 1008.1
20260506204039 62 326 3.5 10.4 0.00 0.00 0.00 96 1008.1
20260506203958 62 320 6.1 10.4 0.00 0.00 0.00 96 1008.1
20260506203900 62 329 7.0 10.4 0.00 0.00 0.00 96 1008.1
20260506203757 62 318 7.8 10.4 0.00 0.00 0.00 96 1008.1
20260506203635 62 322 7.8 10.4 0.00 0.00 0.00 96 1008.1
20260506203532 62 326 6.1 9.6 0.00 0.00 0.00 96 1008.1
20260506203430 62 326 4.3 9.6 0.00 0.00 0.00 96 1008.1
20260506203328 62 316 4.3 9.6 0.00 0.00 0.00 96 1008.1
20260506203226 62 328 6.1 10.4 0.00 0.00 0.00 96 1008.1
20260506203157 62 323 4.3 10.4 0.00 0.00 0.00 96 1008.1
20260506203040 62 340 3.5 10.4 0.00 0.00 0.00 96 1008.1
20260506202939 62 323 6.1 10.4 0.00 0.00 0.00 96 1008.1
20260506202837 62 330 7.0 10.4 0.00 0.00 0.00 96 1008.1
20260506202735 62 326 7.8 10.4 0.00 0.00 0.00 96 1008.1
20260506202634 62 329 6.1 10.4 0.00 0.00 0.00 96 1008.1
20260506202552 62 318 4.3 10.4 0.00 0.00 0.00 96 1008.1
20260506202430 62 319 6.1 10.4 0.00 0.00 0.00 96 1008.1
20260506202332 62 325 3.5 9.6 0.00 0.00 0.00 96 1008.1
20260506202230 62 335 6.1 9.6 0.00 0.00 0.00 96 1008.1
20260506202128 62 329 4.3 9.6 0.00 0.00 0.00 96 1008.1
20260506202028 62 323 2.6 9.6 0.00 0.00 0.00 96 1008.1
20260506201926 62 322 3.5 9.6 0.00 0.00 0.00 96 1008.1
20260506201824 62 315 0.9 9.6 0.00 0.00 0.00 96 1008.1
20260506201735 62 328 3.5 9.6 0.00 0.00 0.00 96 1008.1
20260506201648 62 326 6.1 9.6 0.00 0.00 0.00 96 1008.1
20260506201527 62 318 5.2 9.6 0.00 0.00 0.00 96 1008.1
20260506201424 62 333 6.1 10.4 0.00 0.00 0.00 96 1008.1
20260506201343 62 323 4.3 10.4 0.00 0.00 0.00 96 1008.6
20260506201241 62 325 3.5 10.4 0.00 0.00 0.00 96 1008.6
20260506201141 62 320 2.6 10.4 0.00 0.00 0.00 96 1008.6
20260506201040 62 322 2.6 10.4 0.00 0.00 0.00 96 1008.6
20260506200923 62 319 3.5 10.4 0.00 0.00 0.00 96 1008.6
20260506200843 62 306 4.3 10.4 0.00 0.00 0.00 96 1008.6
20260506200741 62 315 3.5 10.4 0.00 0.00 0.00 96 1008.6
20260506200659 62 312 6.1 10.4 0.00 0.00 0.00 96 1008.6
20260506200537 62 320 6.1 10.4 0.00 0.00 0.00 96 1008.6
20260506200435 62 312 5.2 10.4 0.00 0.00 0.00 96 1008.6
20260506200333 62 328 4.3 7.0 0.00 0.00 0.00 96 1008.6
20260506200302 62 316 6.1 7.0 0.00 0.00 0.00 96 1008.6
20260506200152 62 320 6.1 7.0 0.00 0.00 0.00 96 1008.6
20260506200035 62 322 4.3 7.0 0.00 0.00 0.00 96 1008.6
20260506195933 62 316 1.7 7.0 0.00 0.00 0.00 96 1008.6
20260506195851 62 319 2.6 7.0 0.00 0.00 0.00 96 1008.9
20260506195729 62 319 1.7 7.0 0.00 0.00 0.00 95 1008.9
20260506195648 62 322 1.7 7.0 0.00 0.00 0.00 95 1008.9
20260506195525 62 304 1.7 7.0 0.00 0.00 0.00 95 1008.9
20260506195424 62 305 5.2 7.0 0.00 0.00 0.00 95 1008.9
20260506195324 62 325 2.6 6.1 0.00 0.00 0.00 95 1008.9
20260506195227 62 291 2.6 8.7 0.00 0.00 0.00 95 1008.9
20260506195126 62 306 2.6 8.7 0.00 0.00 0.00 95 1008.9
20260506195024 62 284 3.5 8.7 0.00 0.00 0.00 95 1008.9
20260506194942 62 325 2.6 8.7 0.00 0.00 0.00 95 1008.9
20260506194841 62 318 1.7 9.6 0.00 0.00 0.00 95 1008.9
20260506194740 62 312 2.6 9.6 0.00 0.00 0.00 95 1008.9
20260506194709 62 313 1.7 9.6 0.00 0.00 0.00 95 1008.9
20260506194546 62 305 4.3 9.6 0.00 0.00 0.00 95 1008.9
20260506194428 62 318 5.2 9.6 0.00 0.00 0.00 95 1008.9
20260506194325 62 325 4.3 9.6 0.00 0.00 0.00 95 1009.2
20260506194243 62 306 3.5 9.6 0.00 0.00 0.00 95 1009.2
20260506194143 62 318 4.3 9.6 0.00 0.00 0.00 95 1009.2
20260506194041 62 322 5.2 9.6 0.00 0.00 0.00 95 1009.2
20260506193939 62 316 4.3 9.6 0.00 0.00 0.00 95 1009.2
20260506193839 62 312 4.3 9.6 0.00 0.00 0.00 95 1009.2
20260506193800 62 277 3.5 9.6 0.00 0.00 0.00 95 1009.2
20260506193658 62 299 2.6 13.0 0.00 0.00 0.00 95 1009.2
20260506193535 62 316 2.6 13.0 0.00 0.00 0.00 95 1009.2
20260506193434 62 298 2.6 13.0 0.00 0.00 0.00 95 1009.2
20260506193332 62 316 0.9 13.0 0.00 0.00 0.00 95 1009.2
20260506193243 62 309 5.2 13.0 0.00 0.00 0.00 95 1009.2
20260506193152 62 306 4.3 13.0 0.00 0.00 0.00 94 1009.2
20260506193028 62 311 4.3 13.0 0.00 0.00 0.00 94 1009.2
20260506192951 62 308 3.5 13.0 0.00 0.00 0.00 94 1009.2
20260506192828 62 326 5.2 13.0 0.00 0.00 0.00 94 1009.7
20260506192727 62 315 6.1 10.4 0.00 0.00 0.00 94 1009.7
20260506192626 62 302 6.1 10.4 0.00 0.00 0.00 94 1009.7
20260506192524 62 306 5.2 9.6 0.00 0.00 0.00 94 1009.7
20260506192442 62 318 6.1 9.6 0.00 0.00 0.00 94 1009.7
20260506192341 62 302 4.3 9.6 0.00 0.00 0.00 94 1009.7
20260506192244 62 318 4.3 12.2 0.00 0.00 0.00 94 1009.7
20260506192203 62 304 5.2 12.2 0.00 0.00 0.00 94 1009.7
20260506192104 62 306 6.1 12.2 0.00 0.00 0.00 94 1009.7
20260506191940 62 311 5.2 12.2 0.00 0.00 0.00 94 1009.7
20260506191839 62 304 3.5 12.2 0.00 0.00 0.00 94 1009.7
20260506191738 62 305 6.1 12.2 0.00 0.00 0.00 94 1009.7
20260506191707 62 315 2.6 12.2 0.00 0.00 0.00 94 1009.7
20260506191524 62 328 4.3 12.2 0.00 0.00 0.00 94 1009.7
20260506191425 62 328 7.8 12.2 0.00 0.00 0.00 93 1009.7
20260506191343 62 313 7.0 13.9 0.00 0.00 0.00 93 1009.7
20260506191242 62 304 3.5 17.4 0.00 0.00 0.00 93 1009.7
20260506191141 62 302 2.6 17.4 0.00 0.00 0.00 93 1009.7
20260506191100 62 320 6.1 17.4 0.00 0.00 0.00 93 1009.7
20260506190938 62 318 6.1 17.4 0.00 0.00 0.00 93 1009.7
20260506190836 62 319 4.3 17.4 0.00 0.00 0.00 93 1009.7
20260506190735 62 325 7.0 17.4 0.00 0.00 0.00 93 1009.7
20260506190638 62 313 6.1 17.4 0.00 0.00 0.00 93 1009.7
20260506190559 62 318 7.0 17.4 0.00 0.00 0.00 93 1009.7
20260506190457 62 296 7.8 17.4 0.00 0.00 0.00 93 1009.7
20260506190334 62 328 7.0 17.4 0.00 0.00 0.00 93 1009.7
20260506190253 62 330 3.5 13.9 0.00 0.00 0.00 93 1009.7
20260506190223 62 329 2.6 13.9 0.00 0.00 0.00 93 1009.7
20260506190039 62 329 3.5 13.9 0.00 0.00 0.00 93 1009.7
20260506185937 62 313 2.6 17.4 0.00 0.00 0.00 93 1009.7
20260506185840 62 318 4.3 17.4 0.00 0.00 0.00 93 1009.5
20260506185738 62 322 6.1 17.4 0.00 0.00 0.00 93 1009.5
20260506185636 62 329 7.0 17.4 0.00 0.00 0.00 93 1009.5
20260506185555 62 329 7.8 17.4 0.00 0.00 0.00 93 1009.5
20260506185432 62 311 4.3 17.4 0.00 0.00 0.00 93 1009.5
20260506185330 62 330 4.3 17.4 0.00 0.00 0.00 93 1009.5
20260506185229 62 305 7.0 17.4 0.00 0.00 0.00 93 1009.5
20260506185136 62 322 8.7 17.4 0.00 0.00 0.00 93 1009.5
20260506185034 62 329 7.8 11.3 0.00 0.00 0.00 93 1009.5
20260506184932 62 325 8.7 11.3 0.00 0.00 0.00 93 1009.5
20260506184850 62 326 6.1 9.6 0.00 0.00 0.00 93 1009.5
20260506184748 62 322 4.3 9.6 0.00 0.00 0.00 93 1009.5
20260506184717 62 326 5.2 9.6 0.00 0.00 0.00 93 1009.5
20260506184537 62 312 5.2 7.8 0.00 0.00 0.00 93 1009.5
20260506184456 62 319 6.1 7.8 0.00 0.00 0.00 93 1009.5
20260506184333 62 328 5.2 7.8 0.00 0.00 0.00 93 1009.8
20260506184236 62 329 3.5 8.7 0.00 0.00 0.00 93 1009.8
20260506184133 62 326 1.7 9.6 0.00 0.00 0.00 93 1009.8
20260506184030 62 323 2.6 9.6 0.00 0.00 0.00 93 1009.8
20260506183929 62 329 5.2 9.6 0.00 0.00 0.00 93 1009.8
20260506183827 62 329 5.2 9.6 0.00 0.00 0.00 93 1009.8
20260506183726 62 326 6.1 9.6 0.00 0.00 0.00 93 1009.8
20260506183629 62 328 5.2 9.6 0.00 0.00 0.00 92 1009.8
20260506183531 62 328 3.5 9.6 0.00 0.00 0.00 93 1009.8
20260506183448 62 329 5.2 9.6 0.00 0.00 0.00 93 1009.8
20260506183326 62 328 7.8 9.6 0.00 0.00 0.00 93 1009.8
20260506183245 62 330 4.3 9.6 0.00 0.00 0.00 93 1009.8
20260506183217 62 325 1.7 9.6 0.00 0.00 0.00 93 1009.8
20260506183034 62 329 3.5 9.6 0.00 0.00 0.00 92 1009.8
20260506182932 62 326 3.5 12.2 0.00 0.00 0.00 92 1009.8
20260506182834 62 330 1.7 12.2 0.00 0.00 0.00 92 1010.6
20260506182734 62 323 4.3 12.2 0.00 0.00 0.00 92 1010.6
20260506182652 62 285 2.6 13.9 0.00 0.00 0.00 92 1010.6
20260506182530 62 323 4.3 13.9 0.00 0.00 0.00 92 1010.6
20260506182450 62 319 3.5 13.9 0.00 0.00 0.00 92 1010.6
20260506182327 62 326 4.3 13.9 0.00 0.00 0.00 92 1010.6
20260506182226 62 330 5.2 14.8 0.00 0.00 0.00 92 1010.6
20260506182124 62 328 7.8 14.8 0.00 0.00 0.00 92 1010.6
20260506182026 63 330 7.0 14.8 0.00 0.00 0.00 92 1010.6
20260506181946 63 322 5.2 14.8 0.00 0.00 0.00 92 1010.6
20260506181843 63 318 6.1 14.8 0.00 0.00 0.00 92 1010.6
20260506181741 63 320 6.1 14.8 0.00 0.00 0.00 92 1010.6
20260506181711 63 294 7.0 14.8 0.00 0.00 0.00 92 1010.6
20260506181528 63 328 10.4 14.8 0.00 0.00 0.00 92 1010.6
20260506181446 63 295 11.3 14.8 0.00 0.00 0.00 92 1010.6
20260506181405 63 311 8.7 14.8 0.00 0.00 0.00 92 1010.6
20260506181302 63 325 5.2 14.8 0.00 0.00 0.00 92 1010.6
20260506181145 63 312 7.8 14.8 0.00 0.00 0.00 92 1010.6
20260506181022 63 318 7.8 14.8 0.00 0.00 0.00 92 1010.6
20260506180944 63 328 5.2 14.8 0.00 0.00 0.00 92 1010.6
20260506180842 63 326 5.2 14.8 0.00 0.00 0.00 92 1010.6
20260506180740 63 309 7.0 14.8 0.00 0.00 0.00 92 1010.6
20260506180638 63 319 6.1 10.4 0.00 0.00 0.00 92 1010.6
20260506180537 63 329 3.5 10.4 0.00 0.00 0.00 92 1010.6
20260506180436 63 323 5.2 10.4 0.00 0.00 0.00 92 1010.6
20260506180339 63 328 6.1 12.2 0.00 0.00 0.00 92 1010.6
20260506180238 63 326 2.6 13.9 0.00 0.00 0.00 92 1010.6
20260506180210 64 319 3.5 13.9 0.00 0.00 0.00 92 1010.6
20260506180026 64 299 3.5 17.4 0.00 0.00 0.00 92 1010.6
20260506175943 64 318 4.3 17.4 0.00 0.00 0.00 92 1010.6
20260506175841 64 328 4.3 17.4 0.00 0.00 0.00 92 1010.6
20260506175759 64 326 5.2 17.4 0.00 0.00 0.00 92 1010.6
20260506175655 64 329 6.1 17.4 0.00 0.00 0.00 92 1010.6
20260506175537 64 325 6.1 17.4 0.00 0.00 0.00 92 1010.6
20260506175435 64 326 10.4 17.4 0.00 0.00 0.00 92 1010.6
20260506175333 64 289 3.5 17.4 0.00 0.00 0.00 92 1010.6
20260506175231 64 329 8.7 17.4 0.00 0.00 0.00 92 1010.6
20260506175131 64 325 6.1 9.6 0.00 0.00 0.00 92 1010.6
20260506175029 64 329 3.5 9.6 0.00 0.00 0.00 92 1010.6
20260506174930 64 328 4.3 10.4 0.00 0.00 0.00 92 1010.6
20260506174833 64 329 6.1 11.3 0.00 0.00 0.00 92 1010.6
20260506174743 64 325 3.5 11.3 0.00 0.00 0.00 92 1010.6
20260506174651 64 316 3.5 11.3 0.00 0.00 0.00 92 1010.6
20260506174529 64 323 4.3 13.9 0.00 0.00 0.00 92 1010.6
20260506174428 64 312 3.5 17.4 0.00 0.00 0.00 92 1010.6
20260506174346 65 313 1.7 17.4 0.00 0.00 0.00 92 1010.9
20260506174243 65 328 3.5 18.2 0.00 0.00 0.00 92 1010.9
20260506174141 65 312 7.0 18.2 0.00 0.00 0.00 92 1010.9
20260506174104 65 322 7.0 18.2 0.00 0.00 0.00 92 1010.9
20260506173941 65 318 6.1 18.2 0.00 0.00 0.00 92 1010.9
20260506173840 65 323 5.2 18.2 0.00 0.00 0.00 92 1010.9
20260506173757 65 335 7.8 18.2 0.00 0.00 0.00 92 1010.9
20260506173635 66 336 10.4 18.2 0.00 0.00 0.00 93 1010.9
20260506173532 66 313 8.7 18.2 0.00 0.00 0.00 93 1010.9
20260506173431 66 312 10.4 18.2 0.00 0.00 0.00 93 1010.9
20260506173333 66 315 3.5 11.3 0.00 0.00 0.00 93 1010.9
20260506173241 66 344 5.2 10.4 0.00 0.00 0.00 93 1010.9
20260506173151 66 329 4.3 10.4 0.00 0.00 0.00 93 1010.9
20260506173032 66 323 5.2 10.4 0.00 0.00 0.00 93 1010.9
20260506172929 66 313 2.6 10.4 0.00 0.00 0.00 93 1010.9
20260506172827 66 328 3.5 10.4 0.00 0.00 0.00 93 1010.5
20260506172747 66 304 2.6 10.4 0.00 0.00 0.00 93 1010.5
20260506172706 66 304 4.3 15.6 0.00 0.00 0.00 93 1010.5
20260506172603 66 294 4.3 15.6 0.00 0.00 0.00 93 1010.5
20260506172445 66 302 5.2 15.6 0.00 0.00 0.00 93 1010.5
20260506172342 66 308 6.1 15.6 0.00 0.00 0.00 93 1010.5
20260506172240 66 311 4.3 15.6 0.00 0.00 0.00 93 1010.5
20260506172138 66 328 2.6 15.6 0.00 0.00 0.00 93 1010.5
20260506172037 66 320 4.3 15.6 0.00 0.00 0.00 93 1010.5
20260506171954 66 302 6.1 15.6 0.00 0.00 0.00 93 1010.5
20260506171852 66 329 11.3 15.6 0.00 0.00 0.00 93 1010.5
20260506171741 66 312 5.2 15.6 0.00 0.00 0.00 93 1010.5
20260506171650 66 322 4.3 15.6 0.00 0.00 0.00 92 1010.5
20260506171531 66 326 5.2 15.6 0.00 0.00 0.00 92 1010.5
20260506171450 66 323 5.2 15.6 0.00 0.00 0.00 92 1010.5
20260506171328 66 315 7.0 15.6 0.00 0.00 0.00 92 1010.4
20260506171246 66 312 7.8 15.6 0.00 0.00 0.00 92 1010.4
20260506171143 66 320 7.0 15.6 0.00 0.00 0.00 92 1010.4
20260506171041 66 296 7.8 15.6 0.00 0.00 0.00 92 1010.4
20260506170940 66 313 10.4 18.2 0.00 0.00 0.00 92 1010.4
20260506170859 66 313 7.8 18.2 0.00 0.00 0.00 92 1010.4
20260506170737 66 299 7.8 18.2 0.00 0.00 0.00 92 1010.4
20260506170640 66 328 7.0 18.2 0.00 0.00 0.00 92 1010.4
20260506170537 66 329 6.1 18.2 0.00 0.00 0.00 92 1010.4
20260506170437 66 329 7.8 18.2 0.00 0.00 0.00 92 1010.4
20260506170334 66 313 7.0 18.2 0.00 0.00 0.00 92 1010.4
20260506170303 66 325 7.8 18.2 0.00 0.00 0.00 92 1010.4
20260506170151 66 280 12.2 18.2 0.00 0.00 0.00 92 1010.4
20260506170029 66 326 12.2 18.2 0.00 0.00 0.00 92 1010.4
20260506165932 66 319 11.3 18.2 0.00 0.00 0.00 92 1010.4
20260506165850 66 313 7.8 18.2 0.00 0.00 0.00 92 1010.2
20260506165729 66 326 13.0 18.2 0.00 0.00 0.00 92 1010.2
20260506165631 66 291 10.4 17.4 0.00 0.00 0.00 92 1010.2
20260506165530 66 312 9.6 17.4 0.00 0.00 0.00 92 1010.2
20260506165448 66 322 7.8 17.4 0.00 0.00 0.00 92 1010.2
20260506165406 66 319 8.7 18.2 0.00 0.00 0.00 92 1010.2
20260506165305 66 282 8.7 18.2 0.00 0.00 0.00 92 1010.2
20260506165124 66 332 11.3 18.2 0.00 0.00 0.00 92 1010.2
20260506165043 66 315 8.7 18.2 0.00 0.00 0.00 92 1010.2
20260506165001 66 325 7.8 18.2 0.00 0.00 0.00 92 1010.2
20260506164858 66 291 10.4 18.2 0.00 0.00 0.00 92 1010.2
20260506164755 66 323 14.8 18.2 0.00 0.00 0.00 92 1010.2
20260506164704 66 319 9.6 18.2 0.00 0.00 0.00 92 1010.2
20260506164541 66 315 10.4 18.2 0.00 0.00 0.00 92 1010.2
20260506164439 66 247 7.0 13.9 0.00 0.00 0.00 93 1010.2
20260506164338 66 298 7.8 13.9 0.00 0.00 0.00 92 1009.9
20260506164241 66 316 10.4 19.1 0.00 0.00 0.00 92 1009.9
20260506164139 66 315 6.1 19.1 0.00 0.00 0.00 92 1009.9
20260506164038 66 328 6.1 19.1 0.00 0.00 0.00 92 1009.9
20260506163935 66 319 8.7 19.1 0.00 0.00 0.00 92 1009.9
20260506163854 66 328 7.8 19.1 0.00 0.00 0.00 92 1009.9
20260506163752 66 322 4.3 19.1 0.00 0.00 0.00 92 1009.9
20260506163631 66 316 8.7 19.1 0.00 0.00 0.00 92 1009.9
20260506163530 66 315 7.8 19.1 0.00 0.00 0.00 92 1009.9
20260506163452 66 319 7.8 19.1 0.00 0.00 0.00 92 1009.9
20260506163329 66 316 11.3 18.2 0.00 0.00 0.00 92 1009.9
20260506163228 66 325 11.3 18.2 0.00 0.00 0.00 92 1009.9
20260506163158 66 254 9.6 18.2 0.00 0.00 0.00 92 1009.9
20260506163035 66 305 12.2 18.2 0.00 0.00 0.00 93 1009.9
20260506162934 66 323 11.3 16.5 0.00 0.00 0.00 92 1009.9
20260506162832 66 305 9.6 16.5 0.00 0.00 0.00 93 1009.9
20260506162730 66 298 5.2 18.2 0.00 0.00 0.00 93 1009.9
20260506162634 66 291 5.2 18.2 0.00 0.00 0.00 93 1009.9
20260506162535 66 312 9.6 18.2 0.00 0.00 0.00 93 1009.9
20260506162454 66 313 9.6 18.2 0.00 0.00 0.00 93 1009.9
20260506162331 66 311 3.5 18.2 0.00 0.00 0.00 93 1009.9
20260506162229 66 272 3.5 18.2 0.00 0.00 0.00 93 1009.9
20260506162129 66 318 7.8 18.2 0.00 0.00 0.00 93 1009.9
20260506162048 66 326 6.1 18.2 0.00 0.00 0.00 93 1009.9
20260506161930 66 316 12.2 18.2 0.00 0.00 0.00 93 1009.9
20260506161847 66 319 9.6 17.4 0.00 0.00 0.00 93 1009.9
20260506161726 66 316 11.3 17.4 0.00 0.00 0.00 93 1009.9
20260506161659 66 268 11.3 17.4 0.00 0.00 0.00 93 1009.9
20260506161537 66 280 13.9 17.4 0.00 0.00 0.00 93 1009.9
20260506161435 66 287 8.7 21.7 0.00 0.00 0.00 93 1009.9
20260506161335 66 322 7.8 21.7 0.00 0.00 0.00 93 1009.9
20260506161233 66 318 8.7 21.7 0.00 0.00 0.00 93 1009.9
20260506161134 66 323 8.7 21.7 0.00 0.00 0.00 93 1009.9
20260506161032 66 296 11.3 21.7 0.00 0.00 0.00 93 1009.9
20260506160931 66 323 11.3 21.7 0.00 0.00 0.00 93 1009.9
20260506160827 66 322 11.3 21.7 0.00 0.00 0.00 93 1009.9
20260506160746 66 320 7.0 21.7 0.00 0.00 0.00 93 1009.9
20260506160624 66 294 13.9 21.7 0.00 0.00 0.00 93 1009.9
20260506160524 66 325 10.4 19.1 0.00 0.00 0.00 93 1009.9
20260506160427 66 329 11.3 19.1 0.00 0.00 0.00 93 1009.9
20260506160326 66 318 6.1 19.1 0.00 0.00 0.00 93 1009.9
20260506160225 66 288 8.7 19.1 0.00 0.00 0.00 93 1009.9
20260506160157 66 316 7.0 19.1 0.00 0.00 0.00 93 1009.9
20260506160037 66 326 6.1 19.1 0.00 0.00 0.00 93 1009.9
20260506155935 66 298 5.2 19.1 0.00 0.00 0.00 93 1009.9
20260506155833 66 280 9.6 22.6 0.00 0.00 0.00 93 1009.6
20260506155732 66 323 12.2 26.9 0.00 0.00 0.00 93 1009.6
20260506155655 66 328 14.8 26.9 0.00 0.00 0.00 93 1009.6
20260506155532 66 302 9.6 26.9 0.00 0.00 0.00 93 1009.6
20260506155431 66 306 11.3 26.9 0.00 0.00 0.00 93 1009.6
20260506155329 66 319 11.3 26.9 0.00 0.00 0.00 93 1009.6
20260506155231 66 319 12.2 26.9 0.00 0.00 0.00 93 1009.6
20260506155129 66 291 13.0 26.9 0.00 0.00 0.00 93 1009.6
20260506155048 66 315 15.6 26.9 0.00 0.00 0.00 93 1009.6
20260506154928 66 302 13.0 26.9 0.00 0.00 0.00 93 1009.6
20260506154828 66 315 10.4 21.7 0.00 0.00 0.00 93 1009.6
20260506154738 66 326 10.4 21.7 0.00 0.00 0.00 93 1009.6
20260506154648 66 322 10.4 23.5 0.00 0.00 0.00 93 1009.6
20260506154525 66 316 11.3 23.5 0.00 0.00 0.00 93 1009.6
20260506154445 66 323 11.3 23.5 0.00 0.00 0.00 93 1009.6
20260506154343 66 309 13.0 23.5 0.00 0.00 0.00 93 1009.7
20260506154300 66 322 11.3 23.5 0.00 0.00 0.00 93 1009.7
20260506154138 66 318 12.2 25.2 0.00 0.00 0.00 93 1009.7
20260506154100 66 277 12.2 25.2 0.00 0.00 0.00 93 1009.7
20260506153958 66 299 11.3 25.2 0.00 0.00 0.00 93 1009.7
20260506153836 66 312 10.4 25.2 0.00 0.00 0.00 93 1009.7
20260506153755 66 294 13.9 25.2 0.00 0.00 0.00 93 1009.7
20260506153633 66 326 12.2 25.2 0.00 0.00 0.00 93 1009.7
20260506153532 66 319 15.6 25.2 0.00 0.00 0.00 93 1009.7
20260506153449 66 312 12.2 25.2 0.00 0.00 0.00 93 1009.7
20260506153347 66 250 14.8 25.2 0.00 0.00 0.00 93 1009.7
20260506153245 66 328 8.7 21.7 0.00 0.00 0.00 93 1009.7
20260506153216 66 271 7.8 23.5 0.00 0.00 0.00 93 1009.7
20260506153037 66 330 8.7 23.5 0.00 0.00 0.00 93 1009.7
20260506152935 66 301 10.4 23.5 0.00 0.00 0.00 93 1009.7
20260506152835 66 311 9.6 23.5 0.00 0.00 0.00 93 1009.5
20260506152732 66 320 12.2 23.5 0.00 0.00 0.00 93 1009.5
20260506152630 65 329 7.8 23.5 0.00 0.00 0.00 93 1009.5
20260506152527 65 316 12.2 23.5 0.00 0.00 0.00 93 1009.5
20260506152446 65 313 10.4 23.5 0.00 0.00 0.00 93 1009.5
20260506152343 65 320 11.3 23.5 0.00 0.00 0.00 93 1009.5
20260506152225 65 298 13.9 23.5 0.00 0.00 0.00 93 1009.5
20260506152124 65 330 16.5 23.5 0.00 0.00 0.00 93 1009.5
20260506152024 65 243 12.2 19.1 0.00 0.00 0.00 93 1009.5
20260506151942 65 296 12.2 19.1 0.00 0.00 0.00 93 1009.5
20260506151900 65 281 9.6 19.1 0.00 0.00 0.00 93 1009.5
20260506151737 65 241 7.8 19.1 0.00 0.00 0.00 93 1009.5
20260506151706 65 302 7.8 18.2 0.00 0.00 0.00 93 1009.5
20260506151603 65 301 10.4 19.1 0.00 0.00 0.00 93 1009.5
20260506151425 65 313 12.2 19.1 0.00 0.00 0.00 93 1009.5
20260506151324 65 270 8.7 20.9 0.00 0.00 0.00 93 1010.1
20260506151243 65 308 11.3 20.9 0.00 0.00 0.00 93 1010.1
20260506151141 65 304 10.4 20.9 0.00 0.00 0.00 93 1010.1
20260506151039 65 289 11.3 20.9 0.00 0.00 0.00 93 1010.1
20260506150940 65 277 10.4 20.9 0.00 0.00 0.00 93 1010.1
20260506150838 65 330 9.6 20.9 0.00 0.00 0.00 93 1010.1
20260506150800 65 325 10.4 20.9 0.00 0.00 0.00 93 1010.1
20260506150637 65 292 9.6 20.9 0.00 0.00 0.00 93 1010.1
20260506150535 65 308 11.3 20.9 0.00 0.00 0.00 93 1010.1
20260506150437 65 306 9.6 20.9 0.00 0.00 0.00 93 1010.1
20260506150335 65 320 7.0 20.9 0.00 0.00 0.00 93 1010.1
20260506150234 65 298 13.0 20.9 0.00 0.00 0.00 93 1010.1
20260506150204 65 308 13.9 20.9 0.00 0.00 0.00 93 1010.1
20260506150025 65 319 14.8 20.9 0.00 0.00 0.00 93 1010.1
20260506145924 65 241 12.2 20.9 0.00 0.00 0.00 93 1010.1
20260506145842 65 270 11.3 18.2 0.00 0.00 0.00 93 1010.1
20260506145740 65 295 9.6 19.1 0.00 0.00 0.00 93 1010.1
20260506145639 65 311 8.7 19.1 0.00 0.00 0.00 93 1010.1
20260506145537 65 313 7.0 19.1 0.00 0.00 0.00 93 1010.1
20260506145435 65 319 9.6 19.1 0.00 0.00 0.00 93 1010.1
20260506145337 65 289 10.4 19.1 0.00 0.00 0.00 93 1010.1
20260506145236 65 253 7.0 19.1 0.00 0.00 0.00 93 1010.1
20260506145135 65 294 6.1 19.1 0.00 0.00 0.00 93 1010.1
20260506145033 65 325 9.6 19.1 0.00 0.00 0.00 93 1010.1
20260506144952 65 304 7.8 19.1 0.00 0.00 0.00 93 1010.1
20260506144829 65 277 6.1 22.6 0.00 0.00 0.00 93 1010.1
20260506144759 65 322 13.9 22.6 0.00 0.00 0.00 93 1010.1
20260506144647 65 313 7.0 22.6 0.00 0.00 0.00 93 1010.1
20260506144549 65 312 8.7 22.6 0.00 0.00 0.00 93 1010.1
20260506144447 65 318 7.0 22.6 0.00 0.00 0.00 93 1010.1
20260506144343 65 288 11.3 22.6 0.00 0.00 0.00 93 1010.3
20260506144240 65 322 11.3 22.6 0.00 0.00 0.00 93 1010.3
20260506144140 65 311 10.4 22.6 0.00 0.00 0.00 93 1010.3
20260506144040 65 330 11.3 22.6 0.00 0.00 0.00 93 1010.3
20260506143938 65 257 7.8 19.1 0.00 0.00 0.00 93 1010.3
20260506143837 65 316 9.6 19.1 0.00 0.00 0.00 93 1010.3
20260506143739 65 280 11.3 19.1 0.00 0.00 0.00 93 1010.3
20260506143657 65 271 9.6 19.1 0.00 0.00 0.00 93 1010.3
20260506143535 65 326 8.7 17.4 0.00 0.00 0.00 93 1010.3
20260506143433 65 306 6.1 17.4 0.00 0.00 0.00 93 1010.3
20260506143352 65 244 9.6 17.4 0.00 0.00 0.00 92 1010.3
20260506143240 65 333 7.8 17.4 0.00 0.00 0.00 92 1010.3
20260506143150 64 318 8.7 17.4 0.00 0.00 0.00 92 1010.3
20260506143027 64 311 11.3 17.4 0.00 0.00 0.00 92 1010.3
20260506142930 64 319 7.8 14.8 0.00 0.00 0.00 92 1010.3
20260506142848 64 308 8.7 14.8 0.00 0.00 0.00 92 1010.1
20260506142726 64 326 9.6 14.8 0.00 0.00 0.00 92 1010.1
20260506142624 64 313 7.0 13.9 0.00 0.00 0.00 92 1010.1
20260506142543 64 285 8.7 13.9 0.00 0.00 0.00 92 1010.1
20260506142440 64 288 9.6 13.9 0.00 0.00 0.00 92 1010.1
20260506142359 64 291 8.7 13.9 0.00 0.00 0.00 92 1010.1
20260506142236 64 328 7.0 13.9 0.00 0.00 0.00 92 1010.1
20260506142137 64 312 7.0 13.9 0.00 0.00 0.00 92 1010.1
20260506142056 64 305 8.7 13.9 0.00 0.00 0.00 92 1010.1
20260506141933 64 272 8.7 13.9 0.00 0.00 0.00 92 1010.1
20260506141831 64 316 7.8 13.9 0.00 0.00 0.00 92 1010.1
20260506141750 64 328 7.0 13.9 0.00 0.00 0.00 92 1010.1
20260506141659 64 315 6.1 13.9 0.00 0.00 0.00 92 1010.1
20260506141536 64 322 7.8 13.9 0.00 0.00 0.00 92 1010.1
20260506141435 64 294 6.1 13.9 0.00 0.00 0.00 92 1010.1
20260506141334 64 325 7.0 13.9 0.00 0.00 0.00 92 1009.9
20260506141240 64 323 7.0 13.9 0.00 0.00 0.00 92 1009.9
20260506141138 64 313 7.0 13.9 0.00 0.00 0.00 92 1009.9
20260506141036 64 319 7.0 13.9 0.00 0.00 0.00 92 1009.9
20260506140933 64 323 7.8 13.9 0.00 0.00 0.00 92 1009.9
20260506140833 64 281 7.0 13.9 0.00 0.00 0.00 92 1009.9
20260506140753 64 325 7.8 13.9 0.00 0.00 0.00 92 1009.9
20260506140631 64 326 7.8 13.9 0.00 0.00 0.00 92 1009.9
20260506140533 64 308 7.8 13.9 0.00 0.00 0.00 92 1009.9
20260506140432 64 291 7.8 13.9 0.00 0.00 0.00 92 1009.9
20260506140352 64 287 7.8 13.9 0.00 0.00 0.00 92 1009.9
20260506140230 64 304 4.3 13.9 0.00 0.00 0.00 92 1009.9
20260506140201 64 254 5.2 13.9 0.00 0.00 0.00 92 1009.9
20260506140058 64 320 4.3 13.9 0.00 0.00 0.00 92 1009.9
20260506135935 64 311 3.5 9.6 0.00 0.00 0.00 92 1009.9
20260506135833 64 275 5.2 11.3 0.00 0.00 0.00 92 1009.6
20260506135735 64 284 6.1 11.3 0.00 0.00 0.00 92 1009.6
20260506135634 64 313 5.2 13.9 0.00 0.00 0.00 92 1009.6
20260506135534 64 277 5.2 13.9 0.00 0.00 0.00 92 1009.6
20260506135454 64 267 3.5 13.9 0.00 0.00 0.00 92 1009.6
20260506135330 64 268 4.3 13.9 0.00 0.00 0.00 92 1009.6
20260506135230 64 313 5.2 13.9 0.00 0.00 0.00 92 1009.6
20260506135129 64 271 7.0 13.9 0.00 0.00 0.00 91 1009.6
20260506135051 64 315 6.1 13.9 0.00 0.00 0.00 91 1009.6
20260506134928 64 240 7.0 13.9 0.00 0.00 0.00 92 1009.6
20260506134827 64 316 7.0 13.9 0.00 0.00 0.00 91 1009.6
20260506134729 64 280 8.7 13.9 0.00 0.00 0.00 91 1009.6
20260506134658 64 271 3.5 9.6 0.00 0.00 0.00 91 1009.6
20260506134536 64 213 1.7 10.4 0.00 0.00 0.00 91 1009.6
20260506134435 64 198 4.3 10.4 0.00 0.00 0.00 91 1009.6
20260506134353 64 217 6.1 16.5 0.00 0.00 0.00 91 1010.6
20260506134234 64 220 3.5 16.5 0.00 0.00 0.00 91 1010.6
20260506134133 64 330 2.6 16.5 0.00 0.00 0.00 91 1010.6
20260506134032 64 322 2.6 16.5 0.00 0.00 0.00 91 1010.6
20260506133930 64 328 1.7 16.5 0.00 0.00 0.00 91 1010.6
20260506133829 64 302 0.0 16.5 0.00 0.00 0.00 91 1010.6
20260506133728 64 329 4.3 16.5 0.00 0.00 0.00 90 1010.6
20260506133631 64 326 7.0 16.5 0.00 0.00 0.00 90 1010.6
20260506133533 65 325 8.7 16.5 0.00 0.00 0.00 90 1010.6
20260506133430 65 330 12.2 16.5 0.00 0.00 0.00 90 1010.6
20260506133349 65 328 7.8 15.6 0.00 0.00 0.00 90 1010.6
20260506133237 65 311 6.1 11.3 0.00 0.00 0.00 90 1010.6
20260506133148 65 316 2.6 11.3 0.00 0.00 0.00 89 1010.6
20260506133025 65 323 1.7 11.3 0.00 0.00 0.00 89 1010.6
20260506132924 65 319 3.5 11.3 0.00 0.00 0.00 89 1010.6
20260506132826 65 309 2.6 11.3 0.00 0.00 0.00 89 1010.4
20260506132725 65 319 2.6 11.3 0.00 0.00 0.00 89 1010.4
20260506132644 65 328 3.5 11.3 0.00 0.00 0.00 89 1010.4
20260506132601 65 323 6.1 11.3 0.00 0.00 0.00 89 1010.4
20260506132440 65 278 7.0 11.3 0.00 0.00 0.00 89 1010.4
20260506132339 65 332 6.1 13.0 0.00 0.00 0.00 89 1010.4
20260506132238 65 323 3.5 13.9 0.00 0.00 0.00 89 1010.4
20260506132142 65 312 3.5 21.7 0.00 0.00 0.00 89 1010.4
20260506132039 65 333 2.6 21.7 0.00 0.00 0.00 89 1010.4
20260506131937 65 336 4.3 21.7 0.00 0.00 0.00 88 1010.4
20260506131836 65 318 5.2 21.7 0.00 0.00 0.00 88 1010.4
20260506131734 65 320 3.5 21.7 0.00 0.00 0.00 88 1010.4
20260506131703 65 270 4.3 21.7 0.00 0.00 0.00 88 1010.4
20260506131540 65 305 6.1 21.7 0.00 0.00 0.00 88 1010.4
20260506131443 65 320 7.8 21.7 0.00 0.00 0.00 88 1010.4
20260506131341 65 311 12.2 21.7 0.00 0.00 0.00 88 1009.7
20260506131240 65 287 13.9 21.7 0.00 0.00 0.00 87 1009.7
20260506131137 65 261 9.6 19.1 0.00 0.00 0.00 87 1009.7
20260506131035 65 319 8.7 19.1 0.00 0.00 0.00 87 1009.7
20260506130933 65 233 9.6 19.1 0.00 0.00 0.00 87 1009.7
20260506130832 65 330 9.6 19.1 0.00 0.00 0.00 87 1009.7
20260506130731 65 316 11.3 20.9 0.00 0.00 0.00 87 1009.7
20260506130632 65 306 9.6 20.9 0.00 0.00 0.00 87 1009.7
20260506130531 65 330 11.3 20.9 0.00 0.00 0.00 87 1009.7
20260506130429 65 326 14.8 20.9 0.00 0.00 0.00 86 1009.7
20260506130327 65 308 13.0 20.9 0.00 0.00 0.00 86 1009.7
20260506130257 65 270 10.4 21.7 0.00 0.00 0.00 86 1009.7
20260506130146 65 316 7.8 21.7 0.00 0.00 0.00 86 1009.7
20260506130042 65 258 8.7 21.7 0.00 0.00 0.00 86 1009.7
20260506125925 65 326 13.9 22.6 0.00 0.00 0.00 86 1009.7
20260506125824 65 299 13.0 22.6 0.00 0.00 0.00 86 1009.5
20260506125743 65 304 10.4 22.6 0.00 0.00 0.00 86 1009.5
20260506125642 66 305 8.7 22.6 0.00 0.00 0.00 86 1009.5
20260506125540 66 328 7.0 22.6 0.00 0.00 0.00 85 1009.5
20260506125459 66 315 9.6 22.6 0.00 0.00 0.00 85 1009.5
20260506125354 66 306 14.8 22.6 0.00 0.00 0.00 85 1009.5
20260506125253 66 315 12.2 22.6 0.00 0.00 0.00 85 1009.5
20260506125151 66 291 13.0 22.6 0.00 0.00 0.00 85 1009.5
20260506125032 66 312 8.7 18.2 0.00 0.00 0.00 85 1009.5
20260506124930 66 328 11.3 19.1 0.00 0.00 0.00 85 1009.5
20260506124829 66 291 9.6 19.1 0.00 0.00 0.00 85 1009.5
20260506124729 66 258 14.8 19.1 0.00 0.00 0.00 85 1009.5
20260506124702 66 329 9.6 19.1 0.00 0.00 0.00 85 1009.5
20260506124541 66 315 10.4 19.1 0.00 0.00 0.00 84 1009.5
20260506124440 66 325 11.3 19.1 0.00 0.00 0.00 84 1009.5
20260506124343 66 322 13.0 19.1 0.00 0.00 0.00 84 1009.5
20260506124240 66 319 13.0 19.1 0.00 0.00 0.00 84 1009.5
20260506124138 66 312 13.0 19.1 0.00 0.00 0.00 84 1009.5
20260506124037 66 253 9.6 19.1 0.00 0.00 0.00 84 1009.5
20260506123935 66 294 7.8 19.1 0.00 0.00 0.00 84 1009.5
20260506123853 66 292 11.3 19.1 0.00 0.00 0.00 83 1009.5
20260506123751 66 330 11.3 19.1 0.00 0.00 0.00 83 1009.5
20260506123630 66 264 9.6 19.1 0.00 0.00 0.00 83 1009.5
20260506123532 66 295 9.6 19.1 0.00 0.00 0.00 83 1009.5
20260506123431 66 313 7.0 19.1 0.00 0.00 0.00 83 1009.5
20260506123329 66 264 13.0 19.1 0.00 0.00 0.00 83 1009.5
20260506123240 66 305 15.6 19.1 0.00 0.00 0.00 83 1009.5
20260506123149 66 302 11.3 19.1 0.00 0.00 0.00 83 1009.5
20260506123026 66 295 8.7 19.1 0.00 0.00 0.00 83 1009.5
20260506122945 66 301 8.7 19.1 0.00 0.00 0.00 83 1009.5
20260506122826 66 312 11.3 19.1 0.00 0.00 0.00 83 1008.8
20260506122725 66 329 10.4 19.1 0.00 0.00 0.00 83 1008.8
20260506122643 66 320 11.3 19.1 0.00 0.00 0.00 83 1008.8
20260506122540 66 322 11.3 19.1 0.00 0.00 0.00 83 1008.8
20260506122439 66 318 10.4 17.4 0.00 0.00 0.00 83 1008.8
20260506122338 66 274 12.2 17.4 0.00 0.00 0.00 83 1008.8
20260506122237 66 315 8.7 16.5 0.00 0.00 0.00 83 1008.8
20260506122137 66 311 7.0 16.5 0.00 0.00 0.00 83 1008.8
20260506122041 66 329 7.0 16.5 0.00 0.00 0.00 83 1008.8
20260506121959 66 265 7.8 17.4 0.00 0.00 0.00 83 1008.8
20260506121837 66 302 10.4 18.2 0.00 0.00 0.00 83 1008.8
20260506121736 66 301 10.4 18.2 0.00 0.00 0.00 83 1008.8
20260506121704 66 315 9.6 18.2 0.00 0.00 0.00 83 1008.8
20260506121540 66 318 11.3 18.2 0.00 0.00 0.00 83 1008.8
20260506121458 66 299 9.6 18.2 0.00 0.00 0.00 83 1008.8
20260506121336 66 309 10.4 18.2 0.00 0.00 0.00 83 1008.8
20260506121239 66 309 10.4 18.2 0.00 0.00 0.00 83 1008.8
20260506121158 66 281 11.3 18.2 0.00 0.00 0.00 83 1008.8
20260506121036 66 304 11.3 18.2 0.00 0.00 0.00 83 1008.8
20260506120936 66 304 10.4 18.2 0.00 0.00 0.00 83 1008.8
20260506120833 66 329 11.3 18.2 0.00 0.00 0.00 83 1008.8
20260506120732 66 304 13.9 18.2 0.00 0.00 0.00 83 1008.8
20260506120630 66 267 10.4 18.2 0.00 0.00 0.00 82 1008.8
20260506120529 66 296 10.4 18.2 0.00 0.00 0.00 82 1008.8
20260506120432 66 323 9.6 18.2 0.00 0.00 0.00 82 1008.8
20260506120331 66 268 10.4 18.2 0.00 0.00 0.00 82 1008.8
20260506120241 66 264 11.3 21.7 0.00 0.00 0.00 82 1008.8
20260506120151 66 257 12.2 21.7 0.00 0.00 0.00 82 1008.8
20260506120026 66 323 9.6 21.7 0.00 0.00 0.00 82 1008.8
20260506115945 66 320 10.4 21.7 0.00 0.00 0.00 82 1008.8
20260506115843 66 270 11.3 21.7 0.00 0.00 0.00 82 1008.6
20260506115725 66 267 5.2 21.7 0.00 0.00 0.00 82 1008.6
20260506115624 66 315 12.2 21.7 0.00 0.00 0.00 82 1008.6
20260506115543 66 330 11.3 21.7 0.00 0.00 0.00 82 1008.6
20260506115441 66 302 15.6 21.7 0.00 0.00 0.00 82 1008.6
20260506115339 66 329 11.3 19.1 0.00 0.00 0.00 82 1008.6
20260506115238 66 316 8.7 17.4 0.00 0.00 0.00 82 1008.6
20260506115156 66 318 9.6 17.4 0.00 0.00 0.00 82 1008.6
20260506115034 66 288 11.3 17.4 0.00 0.00 0.00 82 1008.6
20260506114936 66 322 7.8 14.8 0.00 0.00 0.00 82 1008.6
20260506114834 66 326 5.2 14.8 0.00 0.00 0.00 82 1008.6
20260506114752 66 296 7.8 14.8 0.00 0.00 0.00 82 1008.6
20260506114723 66 319 8.7 17.4 0.00 0.00 0.00 82 1008.6
20260506114559 66 325 8.7 17.4 0.00 0.00 0.00 82 1008.6
20260506114435 66 282 8.7 17.4 0.00 0.00 0.00 82 1008.6
20260506114334 66 296 8.7 23.5 0.00 0.00 0.00 82 1008.3
20260506114253 66 323 9.6 23.5 0.00 0.00 0.00 82 1008.3
20260506114133 66 323 12.2 23.5 0.00 0.00 0.00 82 1008.3
20260506114051 66 312 5.2 23.5 0.00 0.00 0.00 82 1008.3
20260506113933 66 325 7.0 23.5 0.00 0.00 0.00 82 1008.3
20260506113831 66 328 7.0 23.5 0.00 0.00 0.00 82 1008.3
20260506113730 66 285 9.6 23.5 0.00 0.00 0.00 82 1008.3
20260506113628 66 326 6.1 23.5 0.00 0.00 0.00 82 1008.3
20260506113527 66 294 13.0 23.5 0.00 0.00 0.00 81 1008.3
20260506113425 66 328 12.2 19.1 0.00 0.00 0.00 81 1008.3
20260506113327 66 292 8.7 19.1 0.00 0.00 0.00 81 1008.3
20260506113237 66 323 13.9 19.1 0.00 0.00 0.00 81 1008.3
20260506113146 66 316 10.4 18.2 0.00 0.00 0.00 81 1008.3
20260506113043 66 318 11.3 19.1 0.00 0.00 0.00 81 1008.3
20260506112942 66 272 11.3 19.1 0.00 0.00 0.00 81 1008.3
20260506112841 66 325 11.3 19.1 0.00 0.00 0.00 81 1008.1
20260506112739 66 326 6.1 19.1 0.00 0.00 0.00 81 1008.1
20260506112637 66 328 7.8 19.1 0.00 0.00 0.00 81 1008.1
20260506112539 66 308 7.8 19.1 0.00 0.00 0.00 81 1008.1
20260506112438 66 313 8.7 19.1 0.00 0.00 0.00 81 1008.1
20260506112336 66 288 9.6 19.1 0.00 0.00 0.00 81 1008.1
20260506112235 66 323 15.6 19.1 0.00 0.00 0.00 81 1008.1
20260506112154 66 316 13.9 18.2 0.00 0.00 0.00 81 1008.1
20260506112031 66 319 9.6 16.5 0.00 0.00 0.00 81 1008.1
20260506111929 66 291 11.3 16.5 0.00 0.00 0.00 81 1008.1
20260506111847 66 323 11.3 16.5 0.00 0.00 0.00 81 1008.1
20260506111806 66 320 8.7 16.5 0.00 0.00 0.00 81 1008.1
20260506111717 66 322 8.7 16.5 0.00 0.00 0.00 81 1008.1
20260506111535 66 328 9.6 16.5 0.00 0.00 0.00 81 1008.1
20260506111433 66 322 10.4 16.5 0.00 0.00 0.00 81 1008.1
20260506111332 66 305 7.0 17.4 0.00 0.00 0.00 81 1007.6
20260506111231 66 295 8.7 17.4 0.00 0.00 0.00 81 1007.6
20260506111131 66 301 8.7 17.4 0.00 0.00 0.00 81 1007.6
20260506111031 66 234 9.6 17.4 0.00 0.00 0.00 81 1007.6
20260506110949 66 315 7.0 17.4 0.00 0.00 0.00 81 1007.6
20260506110831 66 272 8.7 22.6 0.00 0.00 0.00 81 1007.6
20260506110729 66 287 8.7 22.6 0.00 0.00 0.00 81 1007.6
20260506110627 66 302 13.9 24.3 0.00 0.00 0.00 81 1007.6
20260506110525 66 299 11.3 24.3 0.00 0.00 0.00 81 1007.6
20260506110443 66 298 8.7 24.3 0.00 0.00 0.00 81 1007.6
20260506110342 66 315 8.7 24.3 0.00 0.00 0.00 81 1007.6
20260506110242 66 301 9.6 24.3 0.00 0.00 0.00 81 1007.6
20260506110212 66 295 7.8 24.3 0.00 0.00 0.00 81 1007.6
20260506110052 66 311 12.2 24.3 0.00 0.00 0.00 80 1007.6
20260506105929 66 313 9.6 24.3 0.00 0.00 0.00 80 1007.6
20260506105831 66 296 13.9 24.3 0.00 0.00 0.00 80 1007.8
20260506105733 66 295 15.6 22.6 0.00 0.00 0.00 80 1007.8
20260506105652 66 302 11.3 22.6 0.00 0.00 0.00 80 1007.8
20260506105529 66 222 10.4 22.6 0.00 0.00 0.00 80 1007.8
20260506105429 66 318 13.9 22.6 0.00 0.00 0.00 80 1007.8
20260506105334 66 295 15.6 22.6 0.00 0.00 0.00 80 1007.8
20260506105231 66 287 8.7 20.9 0.00 0.00 0.00 80 1007.8
20260506105131 66 301 12.2 20.9 0.00 0.00 0.00 80 1007.8
20260506105029 66 311 13.9 20.9 0.00 0.00 0.00 80 1007.8
20260506104927 66 287 7.8 20.9 0.00 0.00 0.00 80 1007.8
20260506104824 66 278 12.2 20.9 0.00 0.00 0.00 80 1007.8
20260506104724 66 302 16.5 20.9 0.00 0.00 0.00 80 1007.8
20260506104654 66 282 10.4 18.2 0.00 0.00 0.00 80 1007.8
20260506104555 66 250 11.3 18.2 0.00 0.00 0.00 80 1007.8
20260506104433 66 292 12.2 18.2 0.00 0.00 0.00 80 1007.8
20260506104332 66 308 13.0 21.7 0.00 0.00 0.00 80 1007.5
20260506104231 66 298 10.4 21.7 0.00 0.00 0.00 80 1007.5
20260506104128 66 313 7.8 21.7 0.00 0.00 0.00 80 1007.5
20260506104025 66 281 8.7 22.6 0.00 0.00 0.00 80 1007.5
20260506103943 66 313 11.3 22.6 0.00 0.00 0.00 80 1007.5
20260506103842 66 326 13.0 24.3 0.00 0.00 0.00 80 1007.5
20260506103800 66 294 11.3 24.3 0.00 0.00 0.00 80 1007.5
20260506103643 66 329 12.2 24.3 0.00 0.00 0.00 80 1007.5
20260506103601 66 322 14.8 24.3 0.00 0.00 0.00 80 1007.5
20260506103336 66 306 15.6 24.3 0.00 0.00 0.00 80 1007.5
20260506103234 66 323 18.2 24.3 0.00 0.00 0.00 80 1007.5
20260506103205 66 333 13.0 24.3 0.00 0.00 0.00 80 1007.5
20260506103043 66 320 15.6 24.3 0.00 0.00 0.00 80 1007.5
20260506102926 66 322 15.6 24.3 0.00 0.00 0.00 80 1007.5
20260506102826 66 318 14.8 23.5 0.00 0.00 0.00 80 1007.5
20260506102724 66 315 7.0 23.5 0.00 0.00 0.00 80 1007.5
20260506102643 66 320 10.4 23.5 0.00 0.00 0.00 80 1007.5
20260506102542 66 326 10.4 23.5 0.00 0.00 0.00 80 1007.5
20260506102440 66 291 13.0 23.5 0.00 0.00 0.00 80 1007.5
20260506102339 66 309 8.7 22.6 0.00 0.00 0.00 80 1007.5
20260506102241 66 322 10.4 22.6 0.00 0.00 0.00 80 1007.5
20260506102139 66 316 11.3 22.6 0.00 0.00 0.00 80 1007.5
20260506102039 66 319 8.7 22.6 0.00 0.00 0.00 80 1007.5
20260506101938 66 284 7.0 22.6 0.00 0.00 0.00 80 1007.5
20260506101856 66 308 5.2 22.6 0.00 0.00 0.00 80 1007.5
20260506101732 66 291 7.0 22.6 0.00 0.00 0.00 80 1007.5
20260506101703 66 319 7.8 22.6 0.00 0.00 0.00 80 1007.5
20260506101601 66 311 10.4 22.6 0.00 0.00 0.00 79 1007.5
20260506101443 66 322 13.0 22.6 0.00 0.00 0.00 79 1007.5
20260506101342 66 326 10.4 20.9 0.00 0.00 0.00 79 1007.3
20260506101241 66 322 5.2 19.1 0.00 0.00 0.00 79 1007.3
20260506101159 66 315 7.0 19.1 0.00 0.00 0.00 79 1007.3
20260506101037 66 301 8.7 19.1 0.00 0.00 0.00 79 1007.3
20260506100935 66 325 7.8 19.1 0.00 0.00 0.00 79 1007.3
20260506100834 66 305 13.0 19.1 0.00 0.00 0.00 79 1007.3
20260506100736 66 288 11.3 23.5 0.00 0.00 0.00 79 1007.3
20260506100654 66 268 11.3 23.5 0.00 0.00 0.00 79 1007.3
20260506100531 66 230 7.0 23.5 0.00 0.00 0.00 79 1007.3
20260506100450 66 299 10.4 23.5 0.00 0.00 0.00 79 1007.3
20260506100327 66 298 7.0 23.5 0.00 0.00 0.00 79 1007.3
20260506100236 66 328 13.0 23.5 0.00 0.00 0.00 79 1007.3
20260506100146 66 309 8.7 23.5 0.00 0.00 0.00 79 1007.3
20260506100041 66 322 11.3 23.5 0.00 0.00 0.00 79 1007.3
20260506095925 66 312 15.6 23.5 0.00 0.00 0.00 79 1007.3
20260506095842 66 329 8.7 18.2 0.00 0.00 0.00 79 1007.1
20260506095741 66 272 11.3 18.2 0.00 0.00 0.00 79 1007.1
20260506095640 66 292 7.8 17.4 0.00 0.00 0.00 79 1007.1
20260506095538 66 291 7.8 17.4 0.00 0.00 0.00 79 1007.1
20260506095436 66 280 9.6 17.4 0.00 0.00 0.00 79 1007.1
20260506095355 66 270 13.0 17.4 0.00 0.00 0.00 79 1007.1
20260506095232 66 312 11.3 17.4 0.00 0.00 0.00 79 1007.1
20260506095134 66 313 11.3 18.2 0.00 0.00 0.00 79 1007.1
20260506095032 66 309 9.6 18.2 0.00 0.00 0.00 79 1007.1
20260506094931 66 272 7.8 18.2 0.00 0.00 0.00 79 1007.1
20260506094828 66 313 9.6 18.2 0.00 0.00 0.00 79 1007.1
20260506094737 66 282 10.4 20.9 0.00 0.00 0.00 79 1007.1
20260506094646 66 306 12.2 20.9 0.00 0.00 0.00 79 1007.1
20260506094524 66 280 12.2 21.7 0.00 0.00 0.00 79 1007.1
20260506094447 66 288 10.4 21.7 0.00 0.00 0.00 79 1007.1
20260506094325 66 322 11.3 21.7 0.00 0.00 0.00 79 1007.0
20260506094243 66 309 11.3 21.7 0.00 0.00 0.00 79 1007.0
20260506094142 66 301 11.3 21.7 0.00 0.00 0.00 79 1007.0
20260506094043 66 309 8.7 21.7 0.00 0.00 0.00 79 1007.0
20260506094001 66 301 9.6 21.7 0.00 0.00 0.00 79 1007.0
20260506093838 66 267 13.0 21.7 0.00 0.00 0.00 79 1007.0
20260506093735 66 301 14.8 21.7 0.00 0.00 0.00 79 1007.0
20260506093637 66 291 13.0 21.7 0.00 0.00 0.00 79 1007.0
20260506093536 66 306 13.0 23.5 0.00 0.00 0.00 79 1007.0
20260506093433 66 288 14.8 23.5 0.00 0.00 0.00 79 1007.0
20260506093332 66 264 14.8 23.5 0.00 0.00 0.00 79 1007.0
20260506093230 66 312 12.2 23.5 0.00 0.00 0.00 79 1007.0
20260506093201 66 312 15.6 25.2 0.00 0.00 0.00 79 1007.0
20260506093037 66 306 12.2 25.2 0.00 0.00 0.00 79 1007.0
20260506092941 66 315 13.0 25.2 0.00 0.00 0.00 79 1007.0
20260506092840 66 313 12.2 25.2 0.00 0.00 0.00 79 1007.3
20260506092739 66 295 12.2 25.2 0.00 0.00 0.00 79 1007.3
20260506092638 66 316 12.2 25.2 0.00 0.00 0.00 79 1007.3
20260506092535 66 292 7.8 25.2 0.00 0.00 0.00 79 1007.3
20260506092433 66 291 12.2 25.2 0.00 0.00 0.00 79 1007.3
20260506092331 66 305 12.2 25.2 0.00 0.00 0.00 79 1007.3
20260506092233 66 258 8.7 20.9 0.00 0.00 0.00 78 1007.3
20260506092131 66 322 11.3 24.3 0.00 0.00 0.00 78 1007.3
20260506092029 66 309 12.2 24.3 0.00 0.00 0.00 78 1007.3
20260506091927 66 308 12.2 24.3 0.00 0.00 0.00 78 1007.3
20260506091826 66 313 10.4 24.3 0.00 0.00 0.00 78 1007.3
20260506091724 66 316 13.9 24.3 0.00 0.00 0.00 78 1007.3
20260506091651 66 309 8.7 24.3 0.00 0.00 0.00 78 1007.3
20260506091533 66 326 8.7 24.3 0.00 0.00 0.00 78 1007.3
20260506091453 66 329 9.6 24.3 0.00 0.00 0.00 78 1007.3
20260506091331 66 306 10.4 24.3 0.00 0.00 0.00 78 1007.2
20260506091229 66 295 15.6 24.3 0.00 0.00 0.00 77 1007.2
20260506091129 66 304 12.2 23.5 0.00 0.00 0.00 77 1007.2
20260506091046 66 312 10.4 23.5 0.00 0.00 0.00 77 1007.2
20260506090943 66 267 10.4 23.5 0.00 0.00 0.00 77 1007.2
20260506090843 66 298 14.8 23.5 0.00 0.00 0.00 77 1007.2
20260506090725 66 281 7.8 22.6 0.00 0.00 0.00 77 1007.2
20260506090643 66 287 7.0 22.6 0.00 0.00 0.00 77 1007.2
20260506090602 66 313 9.6 22.6 0.00 0.00 0.00 77 1007.2
20260506090439 66 281 14.8 22.6 0.00 0.00 0.00 77 1007.2
20260506090337 66 312 13.0 23.5 0.00 0.00 0.00 77 1007.2
20260506090255 66 277 12.2 23.5 0.00 0.00 0.00 77 1007.2
20260506090204 66 322 12.2 23.5 0.00 0.00 0.00 77 1007.2
20260506090041 66 318 11.3 23.5 0.00 0.00 0.00 77 1007.2
20260506085943 66 326 7.8 23.5 0.00 0.00 0.00 77 1007.2
20260506085841 66 311 9.6 23.5 0.00 0.00 0.00 77 1006.8
20260506085800 66 306 8.7 23.5 0.00 0.00 0.00 77 1006.8
20260506085638 66 309 8.7 23.5 0.00 0.00 0.00 77 1006.8
20260506085555 66 298 13.0 23.5 0.00 0.00 0.00 77 1006.8
20260506085433 66 322 15.6 23.5 0.00 0.00 0.00 77 1006.8
20260506085332 66 326 13.0 23.5 0.00 0.00 0.00 77 1006.8
20260506085250 66 325 13.0 23.5 0.00 0.00 0.00 77 1006.8
20260506085131 66 311 12.2 23.5 0.00 0.00 0.00 77 1006.8
20260506085030 66 313 8.7 23.5 0.00 0.00 0.00 77 1006.8
20260506084949 66 319 9.6 23.5 0.00 0.00 0.00 77 1006.8
20260506084827 66 322 13.9 23.5 0.00 0.00 0.00 76 1006.8
20260506084725 66 309 10.4 23.5 0.00 0.00 0.00 76 1006.8
20260506084653 66 253 14.8 23.5 0.00 0.00 0.00 76 1006.8
20260506084530 66 316 16.5 23.5 0.00 0.00 0.00 76 1006.8
20260506084426 66 302 12.2 22.6 0.00 0.00 0.00 76 1006.8
20260506084329 66 282 10.4 22.6 0.00 0.00 0.00 76 1006.9
20260506084246 66 311 13.0 26.1 0.00 0.00 0.00 75 1006.9
20260506084144 66 320 12.2 26.1 0.00 0.00 0.00 75 1006.9
20260506084042 66 318 12.2 26.1 0.00 0.00 0.00 75 1006.9
20260506083940 66 315 13.0 26.1 0.00 0.00 0.00 75 1006.9
20260506083838 66 320 12.2 26.1 0.00 0.00 0.00 75 1006.9
20260506083756 66 325 13.0 26.1 0.00 0.00 0.00 74 1006.9
20260506083633 66 328 14.8 26.1 0.00 0.00 0.00 74 1006.9
20260506083532 66 258 14.8 26.1 0.00 0.00 0.00 74 1006.9
20260506083434 66 281 13.0 26.1 0.00 0.00 0.00 74 1006.9
20260506083331 66 318 14.8 26.1 0.00 0.00 0.00 74 1006.9
20260506083244 66 329 13.0 26.1 0.00 0.00 0.00 74 1006.9
20260506083155 66 305 13.0 26.1 0.00 0.00 0.00 74 1006.9
20260506083032 66 311 11.3 26.9 0.00 0.00 0.00 74 1006.9
20260506082950 66 304 11.3 26.9 0.00 0.00 0.00 74 1006.9
20260506082847 66 302 13.9 26.9 0.00 0.00 0.00 74 1006.9
20260506082744 66 316 16.5 26.9 0.00 0.00 0.00 74 1006.9
20260506082626 66 288 13.0 26.9 0.00 0.00 0.00 74 1006.9
20260506082543 66 280 15.6 26.9 0.00 0.00 0.00 74 1006.9
20260506082502 66 325 11.3 26.9 0.00 0.00 0.00 74 1006.9
20260506082339 66 329 11.3 26.9 0.00 0.00 0.00 74 1006.9
20260506082238 66 323 14.8 26.9 0.00 0.00 0.00 74 1006.9
20260506082136 66 323 15.6 26.1 0.00 0.00 0.00 74 1006.9
20260506082033 66 311 14.8 25.2 0.00 0.00 0.00 74 1006.9
20260506081935 66 320 14.8 25.2 0.00 0.00 0.00 74 1006.9
20260506081834 66 298 16.5 25.2 0.00 0.00 0.00 73 1006.9
20260506081753 66 328 13.9 25.2 0.00 0.00 0.00 73 1006.9
20260506081705 66 291 12.2 23.5 0.00 0.00 0.00 73 1006.9
20260506081542 66 326 19.1 23.5 0.00 0.00 0.00 73 1006.9
20260506081501 66 311 14.8 22.6 0.00 0.00 0.00 73 1006.9
20260506081339 66 244 13.9 24.3 0.00 0.00 0.00 73 1006.7
20260506081237 66 275 13.9 24.3 0.00 0.00 0.00 73 1006.7
20260506081135 67 330 13.9 24.3 0.00 0.00 0.00 73 1006.7
20260506081036 67 313 13.9 24.3 0.00 0.00 0.00 73 1006.7
20260506080954 67 299 13.0 24.3 0.00 0.00 0.00 73 1006.7
20260506080853 67 320 13.9 24.3 0.00 0.00 0.00 73 1006.7
20260506080731 67 304 13.0 24.3 0.00 0.00 0.00 73 1006.7
20260506080649 67 311 14.8 24.3 0.00 0.00 0.00 73 1006.7
20260506080526 67 285 15.6 24.3 0.00 0.00 0.00 73 1006.7
20260506080424 67 319 14.8 24.3 0.00 0.00 0.00 73 1006.7
20260506080342 67 313 18.2 24.3 0.00 0.00 0.00 72 1006.7
20260506080236 67 320 13.0 22.6 0.00 0.00 0.00 72 1006.7
20260506080146 67 299 9.6 24.3 0.00 0.00 0.00 72 1006.7